Wetterdaten: Freitag, 11.06.2010
Datum Zeit Temp. Innen Temp. Aussen UV X Diff Temp. Feuchte Inne Feuchte Auss Sonnenschein Luftdruck Regen ab 0,1 Wind Sonnenschein Windben
11.06.2010 00:00 22,9 C 20,1 C 0,0 UV-I 0,0 C 70 % 89 % 0 % 1007,0 hPa 0,0 l/m 0,0 km/h (0 Bft) 0 min 0,0 km/h (0 Bft)
11.06.2010 00:02 22,9 C 20,1 C 0,0 UV-I 0,0 C 70 % 89 % 0 % 1007,0 hPa 0,0 l/m 0,0 km/h (0 Bft) 0 min 0,0 km/h (0 Bft)
11.06.2010 00:04 22,9 C 20,1 C 0,0 UV-I 0,0 C 70 % 89 % 0 % 1007,0 hPa 0,0 l/m 0,0 km/h (0 Bft) 0 min 0,0 km/h (0 Bft)
11.06.2010 00:06 22,9 C 20,0 C 0,0 UV-I 0,0 C 70 % 89 % 0 % 1007,0 hPa 0,0 l/m 0,0 km/h (0 Bft) 0 min 0,0 km/h (0 Bft)
11.06.2010 00:08 22,9 C 20,1 C 0,0 UV-I 0,0 C 70 % 89 % 0 % 1007,0 hPa 0,0 l/m 0,0 km/h (0 Bft) 0 min 0,0 km/h (0 Bft)
11.06.2010 00:10 22,9 C 20,0 C 0,0 UV-I 0,0 C 70 % 89 % 0 % 1007,0 hPa 0,0 l/m 0,0 km/h (0 Bft) 0 min 0,0 km/h (0 Bft)
11.06.2010 00:12 22,9 C 20,0 C 0,0 UV-I 0,0 C 70 % 89 % 0 % 1007,5 hPa 0,0 l/m 0,4 km/h (0 Bft) 0 min 0,0 km/h (0 Bft)
11.06.2010 00:14 22,9 C 20,1 C 0,0 UV-I 0,0 C 70 % 89 % 0 % 1007,5 hPa 0,0 l/m 0,4 km/h (0 Bft) 0 min 4,2 km/h (1 Bft)
11.06.2010 00:16 22,9 C 20,0 C 0,0 UV-I 0,0 C 70 % 89 % 0 % 1007,5 hPa 0,0 l/m 0,4 km/h (0 Bft) 0 min 3,2 km/h (1 Bft)
11.06.2010 00:18 22,9 C 20,1 C 0,0 UV-I 0,0 C 70 % 90 % 0 % 1007,5 hPa 0,0 l/m 0,8 km/h (0 Bft) 0 min 3,5 km/h (1 Bft)
11.06.2010 00:20 22,9 C 20,0 C 0,0 UV-I 0,0 C 70 % 90 % 0 % 1007,5 hPa 0,1 l/m 1,2 km/h (1 Bft) 0 min 6,1 km/h (2 Bft)
11.06.2010 00:22 22,8 C 20,0 C 0,0 UV-I 0,0 C 70 % 90 % 0 % 1007,5 hPa 0,0 l/m 1,6 km/h (1 Bft) 0 min 6,8 km/h (2 Bft)
11.06.2010 00:24 22,8 C 20,1 C 0,0 UV-I 0,0 C 70 % 90 % 0 % 1007,5 hPa 0,0 l/m 2,0 km/h (1 Bft) 0 min 3,9 km/h (1 Bft)
11.06.2010 00:26 22,8 C 20,0 C 0,0 UV-I 0,0 C 70 % 90 % 0 % 1007,5 hPa 0,0 l/m 2,8 km/h (1 Bft) 0 min 4,2 km/h (1 Bft)
11.06.2010 00:28 22,8 C 20,0 C 0,0 UV-I 0,0 C 70 % 90 % 0 % 1007,5 hPa 0,0 l/m 2,8 km/h (1 Bft) 0 min 0,0 km/h (0 Bft)
11.06.2010 00:30 22,9 C 20,0 C 0,0 UV-I 0,0 C 70 % 90 % 0 % 1007,5 hPa 0,0 l/m 2,8 km/h (1 Bft) 0 min 10,0 km/h (2 Bft)
11.06.2010 00:32 22,8 C 20,0 C 0,0 UV-I 0,0 C 70 % 90 % 0 % 1007,9 hPa 0,0 l/m 2,8 km/h (1 Bft) 0 min 3,2 km/h (1 Bft)
11.06.2010 00:34 22,8 C 20,0 C 0,0 UV-I 0,0 C 70 % 90 % 0 % 1007,9 hPa 0,1 l/m 2,0 km/h (1 Bft) 0 min 0,0 km/h (0 Bft)
11.06.2010 00:36 22,8 C 20,1 C 0,0 UV-I 0,0 C 70 % 90 % 0 % 1007,9 hPa 0,0 l/m 1,2 km/h (1 Bft) 0 min 0,0 km/h (0 Bft)
11.06.2010 00:38 22,8 C 20,0 C 0,0 UV-I 0,0 C 71 % 89 % 0 % 1007,9 hPa 0,0 l/m 0,8 km/h (0 Bft) 0 min 0,0 km/h (0 Bft)
11.06.2010 00:40 22,8 C 20,1 C 0,0 UV-I 0,0 C 71 % 89 % 0 % 1007,9 hPa 0,0 l/m 1,6 km/h (1 Bft) 0 min 13,2 km/h (3 Bft)
11.06.2010 00:42 22,8 C 20,1 C 0,0 UV-I 0,0 C 71 % 89 % 0 % 1007,9 hPa 0,0 l/m 2,0 km/h (1 Bft) 0 min 4,5 km/h (1 Bft)
11.06.2010 00:46 22,8 C 20,3 C 0,0 UV-I 0,0 C 71 % 88 % 0 % 1007,9 hPa 0,0 l/m 2,4 km/h (1 Bft) 0 min 4,8 km/h (1 Bft)
11.06.2010 00:48 22,8 C 20,3 C 0,0 UV-I 0,0 C 71 % 88 % 0 % 1007,9 hPa 0,0 l/m 2,8 km/h (1 Bft) 0 min 3,9 km/h (1 Bft)
11.06.2010 00:50 22,8 C 20,2 C 0,0 UV-I 0,0 C 71 % 88 % 0 % 1007,9 hPa 0,0 l/m 2,8 km/h (1 Bft) 0 min 3,9 km/h (1 Bft)
11.06.2010 00:52 22,8 C 20,2 C 0,0 UV-I 0,0 C 71 % 88 % 0 % 1008,3 hPa 0,4 l/m 2,8 km/h (1 Bft) 0 min 5,1 km/h (1 Bft)
11.06.2010 00:54 22,8 C 20,2 C 0,0 UV-I 0,0 C 71 % 88 % 0 % 1008,3 hPa 0,0 l/m 3,2 km/h (1 Bft) 0 min 4,2 km/h (1 Bft)
11.06.2010 00:56 22,8 C 20,3 C 0,0 UV-I 0,0 C 71 % 88 % 0 % 1008,3 hPa 0,0 l/m 3,6 km/h (1 Bft) 0 min 3,5 km/h (1 Bft)
11.06.2010 00:58 22,8 C 20,2 C 0,0 UV-I 0,0 C 71 % 88 % 0 % 1008,3 hPa 0,1 l/m 4,4 km/h (1 Bft) 0 min 7,1 km/h (2 Bft)
11.06.2010 01:00 22,8 C 20,1 C 0,0 UV-I 0,0 C 71 % 88 % 0 % 1008,3 hPa 0,0 l/m 4,0 km/h (1 Bft) 0 min 3,2 km/h (1 Bft)
11.06.2010 01:02 22,8 C 20,1 C 0,0 UV-I 0,0 C 71 % 88 % 0 % 1008,3 hPa 0,0 l/m 3,6 km/h (1 Bft) 0 min 6,1 km/h (2 Bft)
11.06.2010 01:04 22,8 C 20,0 C 0,0 UV-I 0,0 C 71 % 88 % 0 % 1008,3 hPa 0,0 l/m 3,6 km/h (1 Bft) 0 min 0,0 km/h (0 Bft)
11.06.2010 01:06 22,8 C 20,0 C 0,0 UV-I 0,0 C 71 % 88 % 0 % 1008,3 hPa 0,0 l/m 2,8 km/h (1 Bft) 0 min 4,2 km/h (1 Bft)
11.06.2010 01:08 22,8 C 20,0 C 0,0 UV-I 0,0 C 71 % 89 % 0 % 1008,3 hPa 0,0 l/m 3,2 km/h (1 Bft) 0 min 5,1 km/h (1 Bft)
11.06.2010 01:10 22,8 C 20,0 C 0,0 UV-I 0,0 C 71 % 88 % 0 % 1008,3 hPa 0,0 l/m 3,2 km/h (1 Bft) 0 min 5,1 km/h (1 Bft)
11.06.2010 01:12 22,8 C 19,9 C 0,0 UV-I 0,0 C 71 % 88 % 0 % 1008,4 hPa 0,1 l/m 4,0 km/h (1 Bft) 0 min 6,4 km/h (2 Bft)
11.06.2010 01:14 22,8 C 19,8 C 0,0 UV-I 0,0 C 71 % 88 % 0 % 1008,4 hPa 0,0 l/m 4,8 km/h (1 Bft) 0 min 10,3 km/h (2 Bft)
11.06.2010 01:18 22,8 C 19,8 C 0,0 UV-I 0,0 C 71 % 87 % 0 % 1008,4 hPa 0,0 l/m 6,8 km/h (2 Bft) 0 min 6,1 km/h (2 Bft)
11.06.2010 01:20 22,8 C 19,7 C 0,0 UV-I 0,0 C 71 % 87 % 0 % 1008,4 hPa 0,0 l/m 6,8 km/h (2 Bft) 0 min 18,7 km/h (3 Bft)
11.06.2010 01:22 22,7 C 19,6 C 0,0 UV-I 0,0 C 71 % 87 % 0 % 1008,4 hPa 0,0 l/m 6,8 km/h (2 Bft) 0 min 4,8 km/h (1 Bft)
11.06.2010 01:24 22,7 C 19,7 C 0,0 UV-I 0,0 C 71 % 87 % 0 % 1008,4 hPa 0,0 l/m 7,2 km/h (2 Bft) 0 min 11,6 km/h (2 Bft)
11.06.2010 01:26 22,7 C 19,6 C 0,0 UV-I 0,0 C 71 % 87 % 0 % 1008,4 hPa 0,1 l/m 7,2 km/h (2 Bft) 0 min 8,4 km/h (2 Bft)
11.06.2010 01:28 22,7 C 19,5 C 0,0 UV-I 0,0 C 71 % 87 % 0 % 1008,4 hPa 0,0 l/m 6,4 km/h (2 Bft) 0 min 3,9 km/h (1 Bft)
11.06.2010 01:30 22,7 C 19,4 C 0,0 UV-I 0,0 C 71 % 87 % 0 % 1008,4 hPa 0,0 l/m 6,4 km/h (2 Bft) 0 min 3,9 km/h (1 Bft)
11.06.2010 01:32 22,7 C 19,5 C 0,0 UV-I 0,0 C 71 % 87 % 0 % 1008,2 hPa 0,2 l/m 5,2 km/h (1 Bft) 0 min 4,5 km/h (1 Bft)
11.06.2010 01:34 22,7 C 19,3 C 0,0 UV-I 0,0 C 71 % 87 % 0 % 1008,2 hPa 0,0 l/m 5,2 km/h (1 Bft) 0 min 11,6 km/h (2 Bft)
11.06.2010 01:36 22,6 C 19,2 C 0,0 UV-I 0,0 C 71 % 88 % 0 % 1008,2 hPa 0,1 l/m 4,8 km/h (1 Bft) 0 min 8,4 km/h (2 Bft)
11.06.2010 01:38 22,6 C 19,3 C 0,0 UV-I 0,0 C 71 % 88 % 0 % 1008,2 hPa 0,1 l/m 4,8 km/h (1 Bft) 0 min 8,7 km/h (2 Bft)
11.06.2010 01:40 22,6 C 19,2 C 0,0 UV-I 0,0 C 71 % 88 % 0 % 1008,2 hPa 0,0 l/m 5,2 km/h (1 Bft) 0 min 5,5 km/h (1 Bft)
11.06.2010 01:42 22,6 C 19,0 C 0,0 UV-I 0,0 C 71 % 88 % 0 % 1008,2 hPa 0,0 l/m 5,2 km/h (1 Bft) 0 min 8,0 km/h (2 Bft)
11.06.2010 01:44 22,6 C 19,1 C 0,0 UV-I 0,0 C 71 % 88 % 0 % 1008,2 hPa 0,2 l/m 5,2 km/h (1 Bft) 0 min 6,1 km/h (2 Bft)
11.06.2010 01:46 22,6 C 18,9 C 0,0 UV-I 0,0 C 71 % 88 % 0 % 1008,2 hPa 0,0 l/m 4,8 km/h (1 Bft) 0 min 0,0 km/h (0 Bft)
11.06.2010 01:48 22,6 C 18,9 C 0,0 UV-I 0,0 C 71 % 88 % 0 % 1008,2 hPa 0,2 l/m 4,0 km/h (1 Bft) 0 min 3,2 km/h (1 Bft)
11.06.2010 01:50 22,6 C 18,8 C 0,0 UV-I 0,0 C 71 % 88 % 0 % 1008,2 hPa 0,0 l/m 4,0 km/h (1 Bft) 0 min 3,2 km/h (1 Bft)
11.06.2010 01:52 22,6 C 18,9 C 0,0 UV-I 0,0 C 70 % 88 % 0 % 1007,3 hPa 0,1 l/m 2,8 km/h (1 Bft) 0 min 3,5 km/h (1 Bft)
11.06.2010 01:54 22,6 C 18,8 C 0,0 UV-I 0,0 C 71 % 88 % 0 % 1007,3 hPa 0,1 l/m 2,4 km/h (1 Bft) 0 min 0,0 km/h (0 Bft)
11.06.2010 01:56 22,6 C 18,7 C 0,0 UV-I 0,0 C 71 % 89 % 0 % 1007,3 hPa 0,1 l/m 1,6 km/h (1 Bft) 0 min 5,5 km/h (1 Bft)
11.06.2010 01:58 22,6 C 18,7 C 0,0 UV-I 0,0 C 71 % 88 % 0 % 1007,3 hPa 0,0 l/m 2,0 km/h (1 Bft) 0 min 9,0 km/h (2 Bft)
11.06.2010 02:00 22,6 C 18,7 C 0,0 UV-I 0,0 C 70 % 89 % 0 % 1007,3 hPa 0,1 l/m 3,2 km/h (1 Bft) 0 min 3,2 km/h (1 Bft)
11.06.2010 02:02 22,6 C 18,6 C 0,0 UV-I 0,0 C 70 % 89 % 0 % 1007,3 hPa 0,1 l/m 3,6 km/h (1 Bft) 0 min 3,2 km/h (1 Bft)
11.06.2010 02:04 22,6 C 18,5 C 0,0 UV-I 0,0 C 70 % 89 % 0 % 1007,3 hPa 0,0 l/m 4,4 km/h (1 Bft) 0 min 10,0 km/h (2 Bft)
11.06.2010 02:06 22,6 C 18,5 C 0,0 UV-I 0,0 C 70 % 89 % 0 % 1007,3 hPa 0,0 l/m 6,0 km/h (2 Bft) 0 min 11,3 km/h (2 Bft)
11.06.2010 02:08 22,6 C 18,4 C 0,0 UV-I 0,0 C 70 % 89 % 0 % 1007,3 hPa 0,0 l/m 6,4 km/h (2 Bft) 0 min 8,7 km/h (2 Bft)
11.06.2010 02:10 22,6 C 18,5 C 0,0 UV-I 0,0 C 70 % 89 % 0 % 1007,3 hPa 0,0 l/m 6,4 km/h (2 Bft) 0 min 8,7 km/h (2 Bft)
11.06.2010 02:12 22,6 C 18,4 C 0,0 UV-I 0,0 C 70 % 90 % 0 % 1006,5 hPa 0,1 l/m 6,4 km/h (2 Bft) 0 min 12,6 km/h (3 Bft)
11.06.2010 02:14 22,6 C 18,3 C 0,0 UV-I 0,0 C 70 % 90 % 0 % 1006,5 hPa 0,0 l/m 6,8 km/h (2 Bft) 0 min 12,6 km/h (3 Bft)
11.06.2010 02:16 22,5 C 18,3 C 0,0 UV-I 0,0 C 70 % 90 % 0 % 1006,5 hPa 0,0 l/m 7,2 km/h (2 Bft) 0 min 10,6 km/h (2 Bft)
11.06.2010 02:18 22,6 C 18,3 C 0,0 UV-I 0,0 C 70 % 90 % 0 % 1006,5 hPa 0,0 l/m 6,8 km/h (2 Bft) 0 min 5,5 km/h (1 Bft)
11.06.2010 02:20 22,5 C 18,2 C 0,0 UV-I 0,0 C 70 % 90 % 0 % 1006,5 hPa 0,0 l/m 6,8 km/h (2 Bft) 0 min 3,5 km/h (1 Bft)
11.06.2010 02:22 22,5 C 18,3 C 0,0 UV-I 0,0 C 70 % 90 % 0 % 1006,5 hPa 0,0 l/m 6,8 km/h (2 Bft) 0 min 7,1 km/h (2 Bft)
11.06.2010 02:24 22,5 C 18,3 C 0,0 UV-I 0,0 C 70 % 90 % 0 % 1006,5 hPa 0,0 l/m 6,8 km/h (2 Bft) 0 min 7,1 km/h (2 Bft)
11.06.2010 02:26 22,5 C 18,1 C 0,0 UV-I 0,0 C 70 % 90 % 0 % 1006,5 hPa 0,0 l/m 6,8 km/h (2 Bft) 0 min 10,9 km/h (2 Bft)
11.06.2010 02:28 22,5 C 18,1 C 0,0 UV-I 0,0 C 70 % 90 % 0 % 1006,5 hPa 0,1 l/m 8,0 km/h (2 Bft) 0 min 21,6 km/h (4 Bft)
11.06.2010 02:30 22,5 C 18,1 C 0,0 UV-I 0,0 C 70 % 90 % 0 % 1006,5 hPa 0,0 l/m 8,0 km/h (2 Bft) 0 min 22,9 km/h (4 Bft)
11.06.2010 02:32 22,5 C 18,0 C 0,0 UV-I 0,0 C 70 % 90 % 0 % 1005,6 hPa 0,1 l/m 10,0 km/h (2 Bft) 0 min 15,8 km/h (3 Bft)
11.06.2010 02:34 22,5 C 18,0 C 0,0 UV-I 0,0 C 70 % 90 % 0 % 1005,6 hPa 0,0 l/m 10,4 km/h (2 Bft) 0 min 10,0 km/h (2 Bft)
11.06.2010 02:36 22,5 C 18,0 C 0,0 UV-I 0,0 C 70 % 90 % 0 % 1005,6 hPa 0,0 l/m 10,4 km/h (2 Bft) 0 min 10,0 km/h (2 Bft)
11.06.2010 02:38 22,4 C 18,1 C 0,0 UV-I 0,0 C 70 % 90 % 0 % 1005,6 hPa 0,0 l/m 9,6 km/h (2 Bft) 0 min 7,7 km/h (2 Bft)
11.06.2010 02:40 22,4 C 18,0 C 0,0 UV-I 0,0 C 70 % 90 % 0 % 1005,6 hPa 0,0 l/m 8,0 km/h (2 Bft) 0 min 5,8 km/h (2 Bft)
11.06.2010 02:42 22,4 C 18,0 C 0,0 UV-I 0,0 C 70 % 90 % 0 % 1005,6 hPa 0,0 l/m 6,8 km/h (2 Bft) 0 min 4,2 km/h (1 Bft)
11.06.2010 02:44 22,4 C 18,0 C 0,0 UV-I 0,0 C 70 % 90 % 0 % 1005,6 hPa 0,0 l/m 6,8 km/h (2 Bft) 0 min 8,0 km/h (2 Bft)
11.06.2010 02:46 22,4 C 17,9 C 0,0 UV-I 0,0 C 70 % 90 % 0 % 1005,6 hPa 0,0 l/m 6,0 km/h (2 Bft) 0 min 6,4 km/h (2 Bft)
11.06.2010 02:48 22,4 C 17,9 C 0,0 UV-I 0,0 C 70 % 90 % 0 % 1005,6 hPa 0,0 l/m 4,4 km/h (1 Bft) 0 min 0,0 km/h (0 Bft)
11.06.2010 02:50 22,4 C 17,9 C 0,0 UV-I 0,0 C 70 % 91 % 0 % 1005,6 hPa 0,0 l/m 4,4 km/h (1 Bft) 0 min 0,0 km/h (0 Bft)
11.06.2010 02:52 22,4 C 17,9 C 0,0 UV-I 0,0 C 70 % 91 % 0 % 1005,9 hPa 0,0 l/m 4,8 km/h (1 Bft) 0 min 3,9 km/h (1 Bft)
11.06.2010 02:54 22,4 C 17,8 C 0,0 UV-I 0,0 C 70 % 91 % 0 % 1005,9 hPa 0,0 l/m 4,4 km/h (1 Bft) 0 min 3,9 km/h (1 Bft)
11.06.2010 02:56 22,4 C 17,8 C 0,0 UV-I 0,0 C 70 % 91 % 0 % 1005,9 hPa 0,0 l/m 3,6 km/h (1 Bft) 0 min 6,8 km/h (2 Bft)
11.06.2010 02:58 22,4 C 17,9 C 0,0 UV-I 0,0 C 70 % 91 % 0 % 1005,9 hPa 0,0 l/m 2,8 km/h (1 Bft) 0 min 0,0 km/h (0 Bft)
11.06.2010 03:00 22,4 C 17,9 C 0,0 UV-I 0,0 C 70 % 91 % 0 % 1005,9 hPa 0,0 l/m 3,6 km/h (1 Bft) 0 min 10,9 km/h (2 Bft)
11.06.2010 03:02 22,4 C 17,7 C 0,0 UV-I 0,0 C 70 % 91 % 0 % 1005,9 hPa 0,0 l/m 4,0 km/h (1 Bft) 0 min 9,0 km/h (2 Bft)
11.06.2010 03:04 22,2 C 17,7 C 0,0 UV-I 0,0 C 70 % 91 % 0 % 1005,9 hPa 0,0 l/m 4,0 km/h (1 Bft) 0 min 9,0 km/h (2 Bft)
11.06.2010 03:06 22,2 C 17,7 C 0,0 UV-I 0,0 C 70 % 91 % 0 % 1005,9 hPa 0,0 l/m 4,0 km/h (1 Bft) 0 min 5,1 km/h (1 Bft)
11.06.2010 03:08 22,2 C 17,7 C 0,0 UV-I 0,0 C 70 % 91 % 0 % 1005,9 hPa 0,0 l/m 3,6 km/h (1 Bft) 0 min 0,0 km/h (0 Bft)
11.06.2010 03:10 22,2 C 17,7 C 0,0 UV-I 0,0 C 70 % 91 % 0 % 1005,9 hPa 0,0 l/m 3,6 km/h (1 Bft) 0 min 0,0 km/h (0 Bft)
11.06.2010 03:12 22,3 C 17,7 C 0,0 UV-I 0,0 C 70 % 91 % 0 % 1006,1 hPa 0,0 l/m 2,4 km/h (1 Bft) 0 min 6,1 km/h (2 Bft)
11.06.2010 03:14 22,3 C 17,7 C 0,0 UV-I 0,0 C 70 % 91 % 0 % 1006,1 hPa 0,0 l/m 2,4 km/h (1 Bft) 0 min 5,5 km/h (1 Bft)
11.06.2010 03:16 22,3 C 17,6 C 0,0 UV-I 0,0 C 70 % 91 % 0 % 1006,1 hPa 0,0 l/m 2,0 km/h (1 Bft) 0 min 6,8 km/h (2 Bft)
11.06.2010 03:18 22,3 C 17,6 C 0,0 UV-I 0,0 C 70 % 91 % 0 % 1006,1 hPa 0,0 l/m 3,2 km/h (1 Bft) 0 min 5,5 km/h (1 Bft)
11.06.2010 03:20 22,3 C 17,6 C 0,0 UV-I 0,0 C 70 % 91 % 0 % 1006,1 hPa 0,0 l/m 4,0 km/h (1 Bft) 0 min 10,6 km/h (2 Bft)
11.06.2010 03:22 22,3 C 17,7 C 0,0 UV-I 0,0 C 70 % 91 % 0 % 1006,1 hPa 0,0 l/m 4,0 km/h (1 Bft) 0 min 0,0 km/h (0 Bft)
11.06.2010 03:24 22,3 C 17,7 C 0,0 UV-I 0,0 C 70 % 91 % 0 % 1006,1 hPa 0,0 l/m 3,6 km/h (1 Bft) 0 min 3,2 km/h (1 Bft)
11.06.2010 03:26 22,2 C 17,6 C 0,0 UV-I 0,0 C 70 % 91 % 0 % 1006,1 hPa 0,0 l/m 3,6 km/h (1 Bft) 0 min 0,0 km/h (0 Bft)
11.06.2010 03:28 22,3 C 17,6 C 0,0 UV-I 0,0 C 70 % 91 % 0 % 1006,1 hPa 0,0 l/m 2,4 km/h (1 Bft) 0 min 5,1 km/h (1 Bft)
11.06.2010 03:30 22,3 C 17,6 C 0,0 UV-I 0,0 C 70 % 92 % 0 % 1006,1 hPa 0,0 l/m 2,4 km/h (1 Bft) 0 min 5,1 km/h (1 Bft)
11.06.2010 03:32 22,2 C 17,6 C 0,0 UV-I 0,0 C 70 % 92 % 0 % 1006,0 hPa 0,0 l/m 1,6 km/h (1 Bft) 0 min 0,0 km/h (0 Bft)
11.06.2010 03:34 22,2 C 17,5 C 0,0 UV-I 0,0 C 70 % 92 % 0 % 1006,0 hPa 0,0 l/m 1,2 km/h (1 Bft) 0 min 0,0 km/h (0 Bft)
11.06.2010 03:36 22,2 C 17,5 C 0,0 UV-I 0,0 C 70 % 92 % 0 % 1006,0 hPa 0,0 l/m 1,6 km/h (1 Bft) 0 min 0,0 km/h (0 Bft)
11.06.2010 03:38 22,2 C 17,5 C 0,0 UV-I 0,0 C 70 % 92 % 0 % 1006,0 hPa 0,0 l/m 2,0 km/h (1 Bft) 0 min 8,0 km/h (2 Bft)
11.06.2010 03:40 22,2 C 17,5 C 0,0 UV-I 0,0 C 70 % 92 % 0 % 1006,0 hPa 0,0 l/m 2,0 km/h (1 Bft) 0 min 3,9 km/h (1 Bft)
11.06.2010 03:42 22,2 C 17,5 C 0,0 UV-I 0,0 C 70 % 92 % 0 % 1006,0 hPa 0,0 l/m 1,6 km/h (1 Bft) 0 min 3,9 km/h (1 Bft)
11.06.2010 03:44 22,2 C 17,4 C 0,0 UV-I 0,0 C 70 % 92 % 0 % 1006,0 hPa 0,0 l/m 2,0 km/h (1 Bft) 0 min 7,1 km/h (2 Bft)
11.06.2010 03:46 22,2 C 17,4 C 0,0 UV-I 0,0 C 70 % 92 % 0 % 1006,0 hPa 0,0 l/m 2,4 km/h (1 Bft) 0 min 6,8 km/h (2 Bft)
11.06.2010 03:48 22,2 C 17,5 C 0,0 UV-I 0,0 C 70 % 92 % 0 % 1006,0 hPa 0,0 l/m 2,4 km/h (1 Bft) 0 min 0,0 km/h (0 Bft)
11.06.2010 03:50 22,2 C 17,5 C 0,0 UV-I 0,0 C 70 % 92 % 0 % 1006,0 hPa 0,0 l/m 2,4 km/h (1 Bft) 0 min 0,0 km/h (0 Bft)
11.06.2010 03:52 22,2 C 17,5 C 0,0 UV-I 0,0 C 70 % 92 % 0 % 1005,9 hPa 0,0 l/m 3,2 km/h (1 Bft) 0 min 4,8 km/h (1 Bft)
11.06.2010 03:54 22,2 C 17,4 C 0,0 UV-I 0,0 C 70 % 92 % 0 % 1005,9 hPa 0,0 l/m 3,2 km/h (1 Bft) 0 min 7,4 km/h (2 Bft)
11.06.2010 03:56 22,2 C 17,4 C 0,0 UV-I 0,0 C 70 % 92 % 0 % 1005,9 hPa 0,0 l/m 2,8 km/h (1 Bft) 0 min 0,0 km/h (0 Bft)
11.06.2010 03:58 22,2 C 17,3 C 0,0 UV-I 0,0 C 70 % 92 % 0 % 1005,9 hPa 0,0 l/m 2,4 km/h (1 Bft) 0 min 0,0 km/h (0 Bft)
11.06.2010 04:00 22,2 C 17,3 C 0,0 UV-I 0,0 C 70 % 92 % 0 % 1005,9 hPa 0,0 l/m 2,0 km/h (1 Bft) 0 min 0,0 km/h (0 Bft)
11.06.2010 04:02 22,2 C 17,3 C 0,0 UV-I 0,0 C 70 % 92 % 0 % 1005,9 hPa 0,0 l/m 1,6 km/h (1 Bft) 0 min 0,0 km/h (0 Bft)
11.06.2010 04:04 22,2 C 17,3 C 0,0 UV-I 0,0 C 70 % 92 % 0 % 1005,9 hPa 0,0 l/m 0,8 km/h (0 Bft) 0 min 0,0 km/h (0 Bft)
11.06.2010 04:06 22,2 C 17,3 C 0,0 UV-I 0,0 C 70 % 92 % 0 % 1005,9 hPa 0,0 l/m 1,2 km/h (1 Bft) 0 min 6,8 km/h (2 Bft)
11.06.2010 04:08 22,2 C 17,3 C 0,0 UV-I 0,0 C 70 % 92 % 0 % 1005,9 hPa 0,0 l/m 2,4 km/h (1 Bft) 0 min 9,0 km/h (2 Bft)
11.06.2010 04:10 22,2 C 17,3 C 0,0 UV-I 0,0 C 70 % 92 % 0 % 1005,9 hPa 0,0 l/m 2,4 km/h (1 Bft) 0 min 9,0 km/h (2 Bft)
11.06.2010 04:13 22,2 C 17,2 C 0,0 UV-I 0,0 C 70 % 92 % 0 % 1005,6 hPa 0,0 l/m 5,6 km/h (1 Bft) 0 min 9,7 km/h (2 Bft)
11.06.2010 04:18 22,2 C 17,2 C 0,0 UV-I 0,0 C 70 % 92 % 0 % 1005,6 hPa 0,0 l/m 5,2 km/h (1 Bft) 0 min 0,0 km/h (0 Bft)
11.06.2010 04:20 22,2 C 17,2 C 0,0 UV-I 0,0 C 70 % 92 % 0 % 1005,6 hPa 0,0 l/m 5,2 km/h (1 Bft) 0 min 0,0 km/h (0 Bft)
11.06.2010 04:22 22,1 C 17,2 C 0,0 UV-I 0,0 C 70 % 92 % 0 % 1005,6 hPa 0,0 l/m 4,8 km/h (1 Bft) 0 min 5,8 km/h (2 Bft)
11.06.2010 04:24 22,1 C 17,2 C 0,0 UV-I 0,0 C 70 % 92 % 0 % 1005,6 hPa 0,0 l/m 4,0 km/h (1 Bft) 0 min 11,9 km/h (2 Bft)
11.06.2010 04:26 22,2 C 17,3 C 0,0 UV-I 0,0 C 70 % 92 % 0 % 1005,6 hPa 0,0 l/m 4,4 km/h (1 Bft) 0 min 10,3 km/h (2 Bft)
11.06.2010 04:28 22,1 C 17,3 C 0,0 UV-I 0,0 C 70 % 92 % 0 % 1005,6 hPa 0,0 l/m 3,6 km/h (1 Bft) 0 min 0,0 km/h (0 Bft)
11.06.2010 04:30 22,1 C 17,3 C 0,0 UV-I 0,0 C 70 % 92 % 0 % 1005,6 hPa 0,0 l/m 3,6 km/h (1 Bft) 0 min 0,0 km/h (0 Bft)
11.06.2010 04:32 22,1 C 17,2 C 0,0 UV-I 0,0 C 70 % 92 % 0 % 1005,9 hPa 0,0 l/m 2,8 km/h (1 Bft) 0 min 0,0 km/h (0 Bft)
11.06.2010 04:34 22,1 C 17,2 C 0,0 UV-I 0,0 C 70 % 92 % 0 % 1005,9 hPa 0,0 l/m 2,0 km/h (1 Bft) 0 min 0,0 km/h (0 Bft)
11.06.2010 04:36 22,1 C 17,2 C 0,0 UV-I 0,0 C 70 % 92 % 0 % 1005,9 hPa 0,0 l/m 1,6 km/h (1 Bft) 0 min 5,8 km/h (2 Bft)
11.06.2010 04:38 22,1 C 17,2 C 0,0 UV-I 0,0 C 70 % 92 % 0 % 1005,9 hPa 0,0 l/m 1,2 km/h (1 Bft) 0 min 3,5 km/h (1 Bft)
11.06.2010 04:40 22,1 C 17,2 C 0,0 UV-I 0,0 C 70 % 92 % 0 % 1005,9 hPa 0,0 l/m 1,2 km/h (1 Bft) 0 min 3,5 km/h (1 Bft)
11.06.2010 04:42 22,1 C 17,1 C 0,0 UV-I 0,0 C 70 % 92 % 0 % 1005,9 hPa 0,0 l/m 1,2 km/h (1 Bft) 0 min 0,0 km/h (0 Bft)
11.06.2010 04:44 22,1 C 17,1 C 0,0 UV-I 0,0 C 70 % 92 % 0 % 1005,9 hPa 0,0 l/m 1,2 km/h (1 Bft) 0 min 0,0 km/h (0 Bft)
11.06.2010 04:46 22,1 C 17,1 C 0,0 UV-I 0,0 C 70 % 92 % 0 % 1005,9 hPa 0,0 l/m 1,6 km/h (1 Bft) 0 min 3,2 km/h (1 Bft)
11.06.2010 04:48 22,1 C 17,1 C 0,0 UV-I 0,0 C 70 % 92 % 0 % 1005,9 hPa 0,0 l/m 1,6 km/h (1 Bft) 0 min 0,0 km/h (0 Bft)
11.06.2010 04:50 22,1 C 17,1 C 0,0 UV-I 0,0 C 70 % 92 % 0 % 1005,9 hPa 0,0 l/m 1,6 km/h (1 Bft) 0 min 0,0 km/h (0 Bft)
11.06.2010 04:52 22,1 C 17,1 C 0,0 UV-I 0,0 C 70 % 92 % 0 % 1006,7 hPa 0,0 l/m 1,6 km/h (1 Bft) 0 min 0,0 km/h (0 Bft)
11.06.2010 04:54 22,1 C 17,1 C 0,0 UV-I 0,0 C 70 % 92 % 0 % 1006,7 hPa 0,0 l/m 1,6 km/h (1 Bft) 0 min 0,0 km/h (0 Bft)
11.06.2010 04:56 22,1 C 17,1 C 0,0 UV-I 0,0 C 70 % 93 % 0 % 1006,7 hPa 0,0 l/m 1,2 km/h (1 Bft) 0 min 0,0 km/h (0 Bft)
11.06.2010 04:58 22,1 C 17,1 C 0,0 UV-I 0,0 C 70 % 93 % 0 % 1006,7 hPa 0,0 l/m 0,8 km/h (0 Bft) 0 min 0,0 km/h (0 Bft)
11.06.2010 05:00 22,1 C 17,1 C 0,0 UV-I 0,0 C 70 % 93 % 0 % 1006,7 hPa 0,0 l/m 0,4 km/h (0 Bft) 0 min 0,0 km/h (0 Bft)
11.06.2010 05:02 22,1 C 17,1 C 0,0 UV-I 0,0 C 70 % 93 % 0 % 1006,7 hPa 0,0 l/m 0,8 km/h (0 Bft) 0 min 5,1 km/h (1 Bft)
11.06.2010 05:04 22,1 C 17,1 C 0,0 UV-I 0,0 C 70 % 93 % 0 % 1006,7 hPa 0,0 l/m 2,0 km/h (1 Bft) 0 min 4,5 km/h (1 Bft)
11.06.2010 05:06 22,1 C 17,1 C 0,0 UV-I 0,0 C 70 % 93 % 0 % 1006,7 hPa 0,0 l/m 2,0 km/h (1 Bft) 0 min 3,5 km/h (1 Bft)
11.06.2010 05:08 22,1 C 17,1 C 0,0 UV-I 0,0 C 70 % 93 % 0 % 1006,7 hPa 0,0 l/m 2,8 km/h (1 Bft) 0 min 9,7 km/h (2 Bft)
11.06.2010 05:10 22,1 C 17,1 C 0,0 UV-I 0,0 C 70 % 93 % 0 % 1006,7 hPa 0,0 l/m 2,8 km/h (1 Bft) 0 min 9,7 km/h (2 Bft)
11.06.2010 05:12 22,1 C 17,1 C 0,0 UV-I 0,0 C 70 % 93 % 0 % 1006,9 hPa 0,0 l/m 4,4 km/h (1 Bft) 0 min 3,2 km/h (1 Bft)
11.06.2010 05:14 22,1 C 17,1 C 0,0 UV-I 0,0 C 70 % 93 % 0 % 1006,9 hPa 0,0 l/m 4,0 km/h (1 Bft) 0 min 5,1 km/h (1 Bft)
11.06.2010 05:16 22,1 C 17,1 C 0,0 UV-I 0,0 C 70 % 93 % 0 % 1006,9 hPa 0,0 l/m 3,6 km/h (1 Bft) 0 min 3,9 km/h (1 Bft)
11.06.2010 05:18 22,1 C 17,1 C 0,0 UV-I 0,0 C 70 % 93 % 0 % 1006,9 hPa 0,0 l/m 4,0 km/h (1 Bft) 0 min 4,5 km/h (1 Bft)
11.06.2010 05:20 22,1 C 17,1 C 0,0 UV-I 0,0 C 70 % 93 % 0 % 1006,9 hPa 0,0 l/m 3,2 km/h (1 Bft) 0 min 8,0 km/h (2 Bft)
11.06.2010 05:22 22,0 C 17,1 C 0,0 UV-I 0,0 C 70 % 93 % 0 % 1006,9 hPa 0,0 l/m 2,8 km/h (1 Bft) 0 min 3,2 km/h (1 Bft)
11.06.2010 05:24 22,0 C 17,1 C 0,0 UV-I 0,0 C 70 % 93 % 0 % 1006,9 hPa 0,0 l/m 2,8 km/h (1 Bft) 0 min 4,5 km/h (1 Bft)
11.06.2010 05:26 22,0 C 17,1 C 0,0 UV-I 0,0 C 70 % 93 % 0 % 1006,9 hPa 0,0 l/m 2,0 km/h (1 Bft) 0 min 0,0 km/h (0 Bft)
11.06.2010 05:28 22,0 C 17,1 C 0,0 UV-I 0,0 C 70 % 93 % 0 % 1006,9 hPa 0,0 l/m 1,6 km/h (1 Bft) 0 min 0,0 km/h (0 Bft)
11.06.2010 05:30 22,0 C 17,1 C 0,0 UV-I 0,0 C 70 % 93 % 0 % 1006,9 hPa 0,0 l/m 1,6 km/h (1 Bft) 0 min 0,0 km/h (0 Bft)
11.06.2010 05:32 22,0 C 17,2 C 0,0 UV-I 0,0 C 70 % 93 % 0 % 1007,1 hPa 0,0 l/m 0,8 km/h (0 Bft) 0 min 0,0 km/h (0 Bft)
11.06.2010 05:34 22,0 C 17,2 C 0,0 UV-I 0,0 C 70 % 93 % 0 % 1007,1 hPa 0,0 l/m 1,2 km/h (1 Bft) 0 min 7,4 km/h (2 Bft)
11.06.2010 05:36 22,0 C 17,2 C 0,0 UV-I 0,0 C 70 % 93 % 0 % 1007,1 hPa 0,0 l/m 2,0 km/h (1 Bft) 0 min 8,0 km/h (2 Bft)
11.06.2010 05:38 22,0 C 17,2 C 0,0 UV-I 0,0 C 70 % 93 % 0 % 1007,1 hPa 0,0 l/m 2,4 km/h (1 Bft) 0 min 7,1 km/h (2 Bft)
11.06.2010 05:40 22,0 C 17,2 C 0,0 UV-I 0,0 C 70 % 93 % 0 % 1007,1 hPa 0,0 l/m 2,8 km/h (1 Bft) 0 min 9,0 km/h (2 Bft)
11.06.2010 05:42 22,0 C 17,3 C 0,0 UV-I 0,0 C 70 % 93 % 0 % 1007,1 hPa 0,0 l/m 2,8 km/h (1 Bft) 0 min 0,0 km/h (0 Bft)
11.06.2010 05:44 22,0 C 17,2 C 0,0 UV-I 0,0 C 70 % 93 % 0 % 1007,1 hPa 0,0 l/m 3,2 km/h (1 Bft) 0 min 0,0 km/h (0 Bft)
11.06.2010 05:46 22,0 C 17,2 C 0,0 UV-I 0,0 C 70 % 93 % 0 % 1007,1 hPa 0,0 l/m 2,8 km/h (1 Bft) 0 min 7,7 km/h (2 Bft)
11.06.2010 05:48 22,0 C 17,3 C 0,0 UV-I 0,0 C 70 % 93 % 0 % 1007,1 hPa 0,0 l/m 3,2 km/h (1 Bft) 0 min 3,9 km/h (1 Bft)
11.06.2010 05:50 22,0 C 17,3 C 0,0 UV-I 0,0 C 70 % 92 % 0 % 1007,1 hPa 0,0 l/m 3,2 km/h (1 Bft) 0 min 3,9 km/h (1 Bft)
11.06.2010 05:52 22,0 C 17,3 C 0,1 UV-I 0,0 C 70 % 92 % 0 % 1007,4 hPa 0,0 l/m 3,6 km/h (1 Bft) 0 min 5,8 km/h (2 Bft)
11.06.2010 05:54 22,0 C 17,2 C 0,1 UV-I 0,0 C 70 % 92 % 0 % 1007,4 hPa 0,0 l/m 3,2 km/h (1 Bft) 0 min 3,5 km/h (1 Bft)
11.06.2010 05:56 22,0 C 17,3 C 0,1 UV-I 0,0 C 70 % 92 % 0 % 1007,4 hPa 0,0 l/m 3,2 km/h (1 Bft) 0 min 0,0 km/h (0 Bft)
11.06.2010 05:58 22,0 C 17,3 C 0,1 UV-I 0,0 C 70 % 92 % 0 % 1007,4 hPa 0,0 l/m 2,0 km/h (1 Bft) 0 min 0,0 km/h (0 Bft)
11.06.2010 06:00 22,0 C 17,2 C 0,1 UV-I 0,0 C 70 % 92 % 0 % 1007,4 hPa 0,0 l/m 1,6 km/h (1 Bft) 0 min 0,0 km/h (0 Bft)
11.06.2010 06:02 22,0 C 17,2 C 0,1 UV-I 0,0 C 70 % 92 % 0 % 1007,4 hPa 0,0 l/m 1,2 km/h (1 Bft) 0 min 5,8 km/h (2 Bft)
11.06.2010 06:04 22,0 C 17,2 C 0,1 UV-I 0,0 C 70 % 92 % 0 % 1007,4 hPa 0,0 l/m 1,2 km/h (1 Bft) 0 min 5,8 km/h (2 Bft)
11.06.2010 06:06 22,0 C 17,3 C 0,2 UV-I 0,0 C 70 % 92 % 0 % 1007,4 hPa 0,0 l/m 0,8 km/h (0 Bft) 0 min 0,0 km/h (0 Bft)
11.06.2010 06:08 22,0 C 17,3 C 0,2 UV-I 0,0 C 70 % 92 % 0 % 1007,4 hPa 0,0 l/m 0,8 km/h (0 Bft) 0 min 0,0 km/h (0 Bft)
11.06.2010 06:10 22,0 C 17,2 C 0,2 UV-I 0,0 C 70 % 92 % 0 % 1007,4 hPa 0,0 l/m 0,8 km/h (0 Bft) 0 min 0,0 km/h (0 Bft)
11.06.2010 06:12 22,0 C 17,3 C 0,2 UV-I 0,0 C 70 % 92 % 0 % 1007,1 hPa 0,0 l/m 0,8 km/h (0 Bft) 0 min 0,0 km/h (0 Bft)
11.06.2010 06:14 22,0 C 17,3 C 0,2 UV-I 0,0 C 70 % 92 % 0 % 1007,1 hPa 0,0 l/m 0,8 km/h (0 Bft) 0 min 5,1 km/h (1 Bft)
11.06.2010 06:16 22,0 C 17,3 C 0,2 UV-I 0,0 C 70 % 92 % 0 % 1007,1 hPa 0,0 l/m 0,8 km/h (0 Bft) 0 min 0,0 km/h (0 Bft)
11.06.2010 06:18 22,0 C 17,3 C 0,2 UV-I 0,0 C 70 % 92 % 0 % 1007,1 hPa 0,0 l/m 0,8 km/h (0 Bft) 0 min 0,0 km/h (0 Bft)
11.06.2010 06:20 22,0 C 17,3 C 0,2 UV-I 0,0 C 70 % 92 % 0 % 1007,1 hPa 0,0 l/m 0,8 km/h (0 Bft) 0 min 0,0 km/h (0 Bft)
11.06.2010 06:22 22,0 C 17,3 C 0,3 UV-I 0,0 C 70 % 92 % 0 % 1007,1 hPa 0,0 l/m 0,8 km/h (0 Bft) 0 min 3,9 km/h (1 Bft)
11.06.2010 06:24 22,0 C 17,4 C 0,3 UV-I 0,0 C 70 % 92 % 0 % 1007,1 hPa 0,0 l/m 1,6 km/h (1 Bft) 0 min 3,9 km/h (1 Bft)
11.06.2010 06:26 22,0 C 17,3 C 0,3 UV-I 0,0 C 70 % 92 % 0 % 1007,1 hPa 0,0 l/m 1,2 km/h (1 Bft) 0 min 0,0 km/h (0 Bft)
11.06.2010 06:28 22,0 C 17,3 C 0,3 UV-I 0,0 C 70 % 92 % 0 % 1007,1 hPa 0,0 l/m 1,2 km/h (1 Bft) 0 min 0,0 km/h (0 Bft)
11.06.2010 06:30 22,0 C 17,5 C 0,3 UV-I 0,0 C 70 % 92 % 0 % 1007,1 hPa 0,0 l/m 1,2 km/h (1 Bft) 0 min 0,0 km/h (0 Bft)
11.06.2010 06:32 22,0 C 17,4 C 0,4 UV-I 0,0 C 70 % 92 % 0 % 1006,9 hPa 0,0 l/m 1,2 km/h (1 Bft) 0 min 0,0 km/h (0 Bft)
11.06.2010 06:34 22,0 C 17,5 C 0,4 UV-I 0,0 C 70 % 92 % 0 % 1006,9 hPa 0,0 l/m 0,8 km/h (0 Bft) 0 min 0,0 km/h (0 Bft)
11.06.2010 06:36 22,0 C 17,5 C 0,5 UV-I 0,0 C 70 % 92 % 0 % 1006,9 hPa 0,0 l/m 0,8 km/h (0 Bft) 0 min 3,9 km/h (1 Bft)
11.06.2010 06:38 22,0 C 17,5 C 0,5 UV-I 0,0 C 70 % 92 % 0 % 1006,9 hPa 0,0 l/m 0,8 km/h (0 Bft) 0 min 3,2 km/h (1 Bft)
11.06.2010 06:40 22,0 C 17,5 C 0,5 UV-I 0,0 C 70 % 92 % 0 % 1006,9 hPa 0,0 l/m 1,2 km/h (1 Bft) 0 min 0,0 km/h (0 Bft)
11.06.2010 06:42 22,0 C 17,4 C 0,6 UV-I 0,0 C 70 % 92 % 0 % 1006,9 hPa 0,0 l/m 1,2 km/h (1 Bft) 0 min 3,9 km/h (1 Bft)
11.06.2010 06:44 22,0 C 17,4 C 0,6 UV-I 0,0 C 70 % 92 % 0 % 1006,9 hPa 0,0 l/m 1,2 km/h (1 Bft) 0 min 0,0 km/h (0 Bft)
11.06.2010 06:46 22,0 C 17,4 C 0,7 UV-I 0,0 C 70 % 92 % 0 % 1006,9 hPa 0,0 l/m 0,8 km/h (0 Bft) 0 min 0,0 km/h (0 Bft)
11.06.2010 06:48 22,0 C 17,5 C 0,7 UV-I 0,0 C 70 % 92 % 0 % 1006,9 hPa 0,0 l/m 0,8 km/h (0 Bft) 0 min 0,0 km/h (0 Bft)
11.06.2010 06:50 22,0 C 17,4 C 0,7 UV-I 0,0 C 70 % 92 % 0 % 1006,9 hPa 0,0 l/m 0,8 km/h (0 Bft) 0 min 0,0 km/h (0 Bft)
11.06.2010 06:52 22,0 C 17,5 C 0,6 UV-I 0,0 C 70 % 92 % 0 % 1007,1 hPa 0,0 l/m 0,8 km/h (0 Bft) 0 min 0,0 km/h (0 Bft)
11.06.2010 06:54 22,0 C 17,4 C 0,6 UV-I 0,0 C 70 % 92 % 0 % 1007,1 hPa 0,0 l/m 0,8 km/h (0 Bft) 0 min 0,0 km/h (0 Bft)
11.06.2010 06:56 22,0 C 17,4 C 0,7 UV-I 0,0 C 70 % 92 % 0 % 1007,1 hPa 0,0 l/m 0,8 km/h (0 Bft) 0 min 0,0 km/h (0 Bft)
11.06.2010 06:58 22,0 C 17,5 C 0,7 UV-I 0,0 C 70 % 92 % 0 % 1007,1 hPa 0,0 l/m 0,8 km/h (0 Bft) 0 min 4,8 km/h (1 Bft)
11.06.2010 07:00 22,0 C 17,4 C 0,7 UV-I 0,0 C 70 % 92 % 0 % 1007,1 hPa 0,0 l/m 0,8 km/h (0 Bft) 0 min 3,2 km/h (1 Bft)
11.06.2010 07:02 22,0 C 17,5 C 0,9 UV-I 0,0 C 70 % 92 % 0 % 1007,1 hPa 0,0 l/m 0,8 km/h (0 Bft) 0 min 4,5 km/h (1 Bft)
11.06.2010 07:04 22,0 C 17,5 C 0,9 UV-I 0,0 C 70 % 92 % 0 % 1007,1 hPa 0,0 l/m 1,2 km/h (1 Bft) 0 min 0,0 km/h (0 Bft)
11.06.2010 07:06 22,0 C 17,5 C 1,2 UV-I 0,0 C 70 % 92 % 0 % 1007,1 hPa 0,0 l/m 1,2 km/h (1 Bft) 0 min 0,0 km/h (0 Bft)
11.06.2010 07:08 22,0 C 17,5 C 1,2 UV-I 0,0 C 70 % 92 % 0 % 1007,1 hPa 0,0 l/m 1,6 km/h (1 Bft) 0 min 6,4 km/h (2 Bft)
11.06.2010 07:10 22,0 C 17,5 C 1,2 UV-I 0,0 C 70 % 92 % 0 % 1007,1 hPa 0,0 l/m 1,6 km/h (1 Bft) 0 min 6,4 km/h (2 Bft)
11.06.2010 07:12 22,0 C 17,5 C 1,5 UV-I 0,0 C 70 % 92 % 0 % 1007,2 hPa 0,0 l/m 2,0 km/h (1 Bft) 0 min 3,2 km/h (1 Bft)
11.06.2010 07:14 22,0 C 17,5 C 1,5 UV-I 0,0 C 70 % 92 % 0 % 1007,2 hPa 0,0 l/m 1,6 km/h (1 Bft) 0 min 3,9 km/h (1 Bft)
11.06.2010 07:16 22,0 C 17,6 C 1,6 UV-I 0,0 C 70 % 92 % 0 % 1007,2 hPa 0,0 l/m 2,0 km/h (1 Bft) 0 min 4,5 km/h (1 Bft)
11.06.2010 07:18 22,0 C 17,7 C 1,6 UV-I 0,0 C 70 % 92 % 0 % 1007,2 hPa 0,0 l/m 2,0 km/h (1 Bft) 0 min 3,9 km/h (1 Bft)
11.06.2010 07:20 22,0 C 17,7 C 1,6 UV-I 0,0 C 70 % 92 % 0 % 1007,2 hPa 0,0 l/m 2,0 km/h (1 Bft) 0 min 4,2 km/h (1 Bft)
11.06.2010 07:22 22,0 C 17,6 C 1,8 UV-I 0,0 C 70 % 92 % 0 % 1007,2 hPa 0,0 l/m 1,6 km/h (1 Bft) 0 min 3,9 km/h (1 Bft)
11.06.2010 07:24 22,0 C 17,6 C 1,8 UV-I 0,0 C 70 % 92 % 0 % 1007,2 hPa 0,0 l/m 1,6 km/h (1 Bft) 0 min 3,9 km/h (1 Bft)
11.06.2010 07:26 22,0 C 17,6 C 1,7 UV-I 0,1 C 70 % 92 % 3 % 1007,2 hPa 0,0 l/m 1,2 km/h (1 Bft) 0 min 0,0 km/h (0 Bft)
11.06.2010 07:28 22,0 C 17,7 C 1,7 UV-I 0,1 C 70 % 92 % 3 % 1007,2 hPa 0,0 l/m 0,8 km/h (0 Bft) 0 min 0,0 km/h (0 Bft)
11.06.2010 07:30 22,0 C 17,7 C 1,7 UV-I 0,1 C 70 % 92 % 3 % 1007,2 hPa 0,0 l/m 0,8 km/h (0 Bft) 0 min 0,0 km/h (0 Bft)
11.06.2010 07:32 22,0 C 17,9 C 1,8 UV-I 0,0 C 70 % 92 % 0 % 1006,9 hPa 0,0 l/m 0,8 km/h (0 Bft) 0 min 0,0 km/h (0 Bft)
11.06.2010 07:34 22,1 C 17,9 C 1,8 UV-I 0,1 C 70 % 92 % 3 % 1006,9 hPa 0,0 l/m 0,8 km/h (0 Bft) 0 min 4,8 km/h (1 Bft)
11.06.2010 07:36 22,0 C 17,9 C 1,9 UV-I 0,2 C 70 % 92 % 6 % 1006,9 hPa 0,0 l/m 1,2 km/h (1 Bft) 0 min 0,0 km/h (0 Bft)
11.06.2010 07:38 22,1 C 17,9 C 1,9 UV-I 0,3 C 70 % 92 % 9 % 1006,9 hPa 0,0 l/m 1,6 km/h (1 Bft) 0 min 3,5 km/h (1 Bft)
11.06.2010 07:40 22,0 C 17,9 C 1,9 UV-I 0,3 C 70 % 92 % 9 % 1006,9 hPa 0,0 l/m 2,0 km/h (1 Bft) 0 min 0,0 km/h (0 Bft)
11.06.2010 07:42 22,1 C 17,9 C 1,8 UV-I 0,3 C 70 % 92 % 9 % 1006,9 hPa 0,0 l/m 2,0 km/h (1 Bft) 0 min 3,9 km/h (1 Bft)
11.06.2010 07:44 22,1 C 18,0 C 1,8 UV-I 0,3 C 70 % 92 % 9 % 1006,9 hPa 0,0 l/m 2,0 km/h (1 Bft) 0 min 5,8 km/h (2 Bft)
11.06.2010 07:46 22,1 C 18,1 C 1,7 UV-I 0,3 C 70 % 92 % 9 % 1006,9 hPa 0,0 l/m 2,0 km/h (1 Bft) 0 min 0,0 km/h (0 Bft)
11.06.2010 07:48 22,1 C 18,0 C 1,7 UV-I 0,4 C 70 % 92 % 11 % 1006,9 hPa 0,0 l/m 1,6 km/h (1 Bft) 0 min 0,0 km/h (0 Bft)
11.06.2010 07:50 22,1 C 18,1 C 1,7 UV-I 0,3 C 70 % 92 % 9 % 1006,9 hPa 0,0 l/m 1,6 km/h (1 Bft) 0 min 0,0 km/h (0 Bft)
11.06.2010 07:52 22,1 C 18,1 C 1,9 UV-I 0,4 C 70 % 92 % 11 % 1006,9 hPa 0,0 l/m 1,6 km/h (1 Bft) 0 min 5,5 km/h (1 Bft)
11.06.2010 07:54 22,1 C 18,1 C 1,9 UV-I 0,5 C 70 % 92 % 14 % 1006,9 hPa 0,0 l/m 2,0 km/h (1 Bft) 0 min 3,9 km/h (1 Bft)
11.06.2010 07:56 22,1 C 18,2 C 2,2 UV-I 0,4 C 70 % 92 % 11 % 1006,9 hPa 0,0 l/m 1,6 km/h (1 Bft) 0 min 3,9 km/h (1 Bft)
11.06.2010 07:58 22,1 C 18,2 C 2,2 UV-I 0,4 C 70 % 92 % 11 % 1006,9 hPa 0,0 l/m 2,0 km/h (1 Bft) 0 min 0,0 km/h (0 Bft)
11.06.2010 08:00 22,1 C 18,3 C 2,2 UV-I 0,3 C 70 % 92 % 9 % 1006,9 hPa 0,0 l/m 2,0 km/h (1 Bft) 0 min 0,0 km/h (0 Bft)
11.06.2010 08:02 22,1 C 18,2 C 2,7 UV-I 0,5 C 70 % 92 % 14 % 1006,9 hPa 0,0 l/m 1,6 km/h (1 Bft) 0 min 0,0 km/h (0 Bft)
11.06.2010 08:04 22,2 C 18,3 C 2,7 UV-I 0,5 C 70 % 92 % 14 % 1006,9 hPa 0,0 l/m 0,8 km/h (0 Bft) 0 min 0,0 km/h (0 Bft)
11.06.2010 08:06 22,1 C 18,3 C 2,9 UV-I 0,7 C 70 % 91 % 20 % 1006,9 hPa 0,0 l/m 1,2 km/h (1 Bft) 0 min 4,2 km/h (1 Bft)
11.06.2010 08:08 22,1 C 18,3 C 2,9 UV-I 1,0 C 70 % 91 % 29 % 1006,9 hPa 0,0 l/m 1,6 km/h (1 Bft) 0 min 4,8 km/h (1 Bft)
11.06.2010 08:10 22,2 C 18,3 C 2,9 UV-I 1,0 C 70 % 91 % 29 % 1006,9 hPa 0,0 l/m 1,6 km/h (1 Bft) 0 min 4,8 km/h (1 Bft)
11.06.2010 08:12 22,2 C 18,5 C 3,2 UV-I 2,8 C 70 % 91 % 80 % 1007,0 hPa 0,0 l/m 2,4 km/h (1 Bft) 0 min 5,1 km/h (1 Bft)
11.06.2010 08:14 22,2 C 18,5 C 3,2 UV-I 3,7 C 70 % 91 % 100 % 1007,0 hPa 0,0 l/m 3,2 km/h (1 Bft) 2 min 6,1 km/h (2 Bft)
11.06.2010 08:16 22,2 C 18,7 C 3,3 UV-I 4,1 C 70 % 91 % 100 % 1007,0 hPa 0,0 l/m 3,6 km/h (1 Bft) 2 min 11,9 km/h (2 Bft)
11.06.2010 08:18 22,2 C 18,7 C 3,3 UV-I 4,3 C 70 % 91 % 100 % 1007,0 hPa 0,0 l/m 3,6 km/h (1 Bft) 2 min 3,5 km/h (1 Bft)
11.06.2010 08:20 22,2 C 18,7 C 3,3 UV-I 4,5 C 70 % 90 % 100 % 1007,0 hPa 0,0 l/m 3,6 km/h (1 Bft) 2 min 0,0 km/h (0 Bft)
11.06.2010 08:22 22,2 C 18,9 C 3,3 UV-I 4,3 C 70 % 90 % 100 % 1007,0 hPa 0,0 l/m 3,6 km/h (1 Bft) 2 min 3,5 km/h (1 Bft)
11.06.2010 08:24 22,1 C 18,8 C 3,3 UV-I 4,2 C 70 % 89 % 100 % 1007,0 hPa 0,0 l/m 4,4 km/h (1 Bft) 2 min 10,6 km/h (2 Bft)
11.06.2010 08:26 22,2 C 18,9 C 3,3 UV-I 3,7 C 70 % 89 % 100 % 1007,0 hPa 0,0 l/m 4,4 km/h (1 Bft) 2 min 0,0 km/h (0 Bft)
11.06.2010 08:28 22,1 C 19,0 C 3,3 UV-I 3,4 C 70 % 88 % 97 % 1007,0 hPa 0,0 l/m 4,0 km/h (1 Bft) 2 min 4,5 km/h (1 Bft)
11.06.2010 08:30 22,2 C 19,1 C 3,3 UV-I 3,3 C 70 % 88 % 94 % 1007,0 hPa 0,0 l/m 4,0 km/h (1 Bft) 2 min 4,5 km/h (1 Bft)
11.06.2010 08:32 22,1 C 19,1 C 3,8 UV-I 2,9 C 70 % 88 % 83 % 1006,9 hPa 0,0 l/m 4,0 km/h (1 Bft) 2 min 4,5 km/h (1 Bft)
11.06.2010 08:34 22,2 C 19,2 C 3,8 UV-I 2,9 C 70 % 86 % 83 % 1006,9 hPa 0,0 l/m 4,8 km/h (1 Bft) 2 min 8,0 km/h (2 Bft)
11.06.2010 08:36 22,1 C 19,3 C 4,4 UV-I 3,0 C 70 % 86 % 86 % 1006,9 hPa 0,0 l/m 4,4 km/h (1 Bft) 2 min 3,9 km/h (1 Bft)
11.06.2010 08:38 22,2 C 19,3 C 4,4 UV-I 3,1 C 69 % 86 % 89 % 1006,9 hPa 0,0 l/m 4,4 km/h (1 Bft) 2 min 4,2 km/h (1 Bft)
11.06.2010 08:40 22,1 C 19,5 C 4,4 UV-I 2,9 C 69 % 86 % 83 % 1006,9 hPa 0,0 l/m 4,4 km/h (1 Bft) 2 min 3,9 km/h (1 Bft)
11.06.2010 08:42 22,2 C 19,5 C 4,6 UV-I 3,1 C 69 % 84 % 89 % 1006,9 hPa 0,0 l/m 5,6 km/h (1 Bft) 2 min 6,4 km/h (2 Bft)
11.06.2010 08:44 22,2 C 19,7 C 4,6 UV-I 2,9 C 69 % 84 % 83 % 1006,9 hPa 0,0 l/m 6,0 km/h (2 Bft) 2 min 5,8 km/h (2 Bft)
11.06.2010 08:48 22,2 C 19,7 C 4,2 UV-I 2,8 C 69 % 84 % 80 % 1006,9 hPa 0,0 l/m 5,6 km/h (1 Bft) 0 min 5,8 km/h (2 Bft)
11.06.2010 08:50 22,2 C 19,7 C 4,2 UV-I 2,8 C 69 % 83 % 80 % 1006,9 hPa 0,0 l/m 5,6 km/h (1 Bft) 0 min 5,8 km/h (2 Bft)
11.06.2010 08:52 22,2 C 19,7 C 3,2 UV-I 2,4 C 69 % 84 % 69 % 1006,9 hPa 0,0 l/m 6,0 km/h (2 Bft) 0 min 3,5 km/h (1 Bft)
11.06.2010 08:54 22,2 C 19,7 C 3,2 UV-I 2,1 C 69 % 83 % 60 % 1006,9 hPa 0,0 l/m 5,2 km/h (1 Bft) 0 min 6,1 km/h (2 Bft)
11.06.2010 08:56 22,2 C 19,7 C 3,0 UV-I 1,9 C 69 % 83 % 54 % 1006,9 hPa 0,0 l/m 6,0 km/h (2 Bft) 0 min 7,4 km/h (2 Bft)
11.06.2010 08:58 22,2 C 19,8 C 3,0 UV-I 1,6 C 69 % 83 % 46 % 1006,9 hPa 0,0 l/m 5,2 km/h (1 Bft) 0 min 7,7 km/h (2 Bft)
11.06.2010 09:00 22,2 C 19,8 C 3,0 UV-I 1,4 C 69 % 83 % 40 % 1006,9 hPa 0,0 l/m 4,8 km/h (1 Bft) 0 min 5,8 km/h (2 Bft)
11.06.2010 09:02 22,2 C 19,8 C 2,8 UV-I 1,4 C 69 % 83 % 40 % 1006,9 hPa 0,0 l/m 4,0 km/h (1 Bft) 0 min 3,9 km/h (1 Bft)
11.06.2010 09:04 22,2 C 19,9 C 2,8 UV-I 1,1 C 69 % 83 % 31 % 1006,9 hPa 0,0 l/m 4,8 km/h (1 Bft) 0 min 5,5 km/h (1 Bft)
11.06.2010 09:06 22,2 C 19,7 C 2,7 UV-I 1,2 C 69 % 83 % 34 % 1006,9 hPa 0,0 l/m 3,6 km/h (1 Bft) 0 min 0,0 km/h (0 Bft)
11.06.2010 09:10 22,2 C 19,8 C 2,7 UV-I 1,1 C 69 % 82 % 31 % 1006,9 hPa 0,0 l/m 3,6 km/h (1 Bft) 0 min 9,0 km/h (2 Bft)
11.06.2010 09:12 22,2 C 19,9 C 3,1 UV-I 0,8 C 69 % 82 % 23 % 1007,2 hPa 0,0 l/m 4,4 km/h (1 Bft) 0 min 8,4 km/h (2 Bft)
11.06.2010 09:14 22,2 C 19,8 C 3,1 UV-I 1,0 C 69 % 81 % 29 % 1007,2 hPa 0,0 l/m 5,2 km/h (1 Bft) 0 min 6,4 km/h (2 Bft)
11.06.2010 09:16 22,2 C 19,9 C 6,5 UV-I 1,4 C 69 % 81 % 40 % 1007,2 hPa 0,0 l/m 5,2 km/h (1 Bft) 0 min 5,1 km/h (1 Bft)
11.06.2010 09:18 22,2 C 19,9 C 6,5 UV-I 1,7 C 69 % 81 % 49 % 1007,2 hPa 0,0 l/m 6,4 km/h (2 Bft) 0 min 10,3 km/h (2 Bft)
11.06.2010 09:20 22,2 C 19,8 C 6,5 UV-I 1,9 C 69 % 81 % 54 % 1007,2 hPa 0,0 l/m 6,8 km/h (2 Bft) 0 min 3,9 km/h (1 Bft)
11.06.2010 09:22 22,2 C 19,9 C 4,4 UV-I 1,7 C 68 % 80 % 49 % 1007,2 hPa 0,0 l/m 7,6 km/h (2 Bft) 0 min 10,9 km/h (2 Bft)
11.06.2010 09:24 22,3 C 19,9 C 4,4 UV-I 1,5 C 68 % 80 % 43 % 1007,2 hPa 0,0 l/m 7,6 km/h (2 Bft) 0 min 5,8 km/h (2 Bft)
11.06.2010 09:26 22,2 C 19,9 C 3,7 UV-I 1,3 C 68 % 80 % 37 % 1007,2 hPa 0,0 l/m 7,6 km/h (2 Bft) 0 min 11,9 km/h (2 Bft)
11.06.2010 09:28 22,2 C 19,9 C 3,7 UV-I 1,2 C 68 % 80 % 34 % 1007,2 hPa 0,0 l/m 6,4 km/h (2 Bft) 0 min 0,0 km/h (0 Bft)
11.06.2010 09:30 22,2 C 19,8 C 3,7 UV-I 1,3 C 68 % 80 % 37 % 1007,2 hPa 0,0 l/m 6,4 km/h (2 Bft) 0 min 0,0 km/h (0 Bft)
11.06.2010 09:32 22,2 C 19,9 C 3,8 UV-I 1,0 C 68 % 79 % 29 % 1007,2 hPa 0,0 l/m 6,4 km/h (2 Bft) 0 min 6,8 km/h (2 Bft)
11.06.2010 09:34 22,2 C 19,9 C 3,8 UV-I 1,0 C 68 % 79 % 29 % 1007,2 hPa 0,0 l/m 4,8 km/h (1 Bft) 0 min 0,0 km/h (0 Bft)
11.06.2010 09:36 22,2 C 19,9 C 4,5 UV-I 1,1 C 68 % 79 % 31 % 1007,2 hPa 0,0 l/m 4,8 km/h (1 Bft) 0 min 6,1 km/h (2 Bft)
11.06.2010 09:38 22,2 C 19,9 C 4,5 UV-I 1,1 C 68 % 79 % 31 % 1007,2 hPa 0,0 l/m 4,8 km/h (1 Bft) 0 min 5,8 km/h (2 Bft)
11.06.2010 09:40 22,2 C 19,9 C 4,5 UV-I 1,2 C 68 % 79 % 34 % 1007,2 hPa 0,0 l/m 5,6 km/h (1 Bft) 0 min 7,1 km/h (2 Bft)
11.06.2010 09:42 22,2 C 19,9 C 5,6 UV-I 1,3 C 67 % 79 % 37 % 1007,2 hPa 0,0 l/m 4,0 km/h (1 Bft) 0 min 8,0 km/h (2 Bft)
11.06.2010 09:44 22,2 C 20,0 C 5,6 UV-I 1,7 C 67 % 79 % 49 % 1007,2 hPa 0,0 l/m 4,8 km/h (1 Bft) 0 min 11,9 km/h (2 Bft)
11.06.2010 09:46 22,2 C 20,1 C 14,9 UV-I 2,6 C 67 % 78 % 74 % 1007,2 hPa 0,0 l/m 6,0 km/h (2 Bft) 0 min 7,1 km/h (2 Bft)
11.06.2010 09:48 22,2 C 20,2 C 14,9 UV-I 3,5 C 67 % 79 % 100 % 1007,2 hPa 0,0 l/m 6,0 km/h (2 Bft) 2 min 4,5 km/h (1 Bft)
11.06.2010 09:50 22,2 C 20,4 C 14,9 UV-I 3,3 C 67 % 79 % 94 % 1007,2 hPa 0,0 l/m 6,0 km/h (2 Bft) 2 min 4,5 km/h (1 Bft)
11.06.2010 09:54 22,2 C 20,7 C 16,1 UV-I 4,7 C 67 % 77 % 100 % 1007,1 hPa 0,0 l/m 7,2 km/h (2 Bft) 2 min 12,9 km/h (3 Bft)
11.06.2010 09:58 22,2 C 20,9 C 14,3 UV-I 4,8 C 67 % 76 % 100 % 1007,1 hPa 0,0 l/m 6,8 km/h (2 Bft) 2 min 9,0 km/h (2 Bft)
11.06.2010 10:00 22,2 C 20,9 C 14,3 UV-I 5,1 C 67 % 74 % 100 % 1007,1 hPa 0,0 l/m 7,6 km/h (2 Bft) 2 min 13,5 km/h (3 Bft)
11.06.2010 10:02 22,2 C 21,0 C 16,5 UV-I 5,2 C 67 % 75 % 100 % 1007,1 hPa 0,0 l/m 7,6 km/h (2 Bft) 2 min 10,0 km/h (2 Bft)
11.06.2010 10:04 22,2 C 21,1 C 16,5 UV-I 5,3 C 67 % 75 % 100 % 1007,1 hPa 0,0 l/m 7,6 km/h (2 Bft) 2 min 4,2 km/h (1 Bft)
11.06.2010 10:06 22,2 C 21,3 C 17,2 UV-I 5,5 C 67 % 74 % 100 % 1007,1 hPa 0,0 l/m 7,2 km/h (2 Bft) 2 min 13,8 km/h (3 Bft)
11.06.2010 10:08 22,2 C 21,3 C 17,2 UV-I 5,6 C 67 % 73 % 100 % 1007,1 hPa 0,0 l/m 7,6 km/h (2 Bft) 2 min 10,0 km/h (2 Bft)
11.06.2010 10:10 22,2 C 21,5 C 17,2 UV-I 5,4 C 67 % 72 % 100 % 1007,1 hPa 0,0 l/m 7,6 km/h (2 Bft) 2 min 10,0 km/h (2 Bft)
11.06.2010 10:12 22,2 C 21,5 C 16,4 UV-I 5,4 C 66 % 72 % 100 % 1007,2 hPa 0,0 l/m 7,6 km/h (2 Bft) 2 min 6,8 km/h (2 Bft)
11.06.2010 10:16 22,2 C 21,6 C 16,9 UV-I 5,9 C 66 % 72 % 100 % 1007,2 hPa 0,0 l/m 7,2 km/h (2 Bft) 2 min 10,0 km/h (2 Bft)
11.06.2010 10:18 22,2 C 21,6 C 16,9 UV-I 6,0 C 66 % 72 % 100 % 1007,2 hPa 0,0 l/m 6,4 km/h (2 Bft) 2 min 5,5 km/h (1 Bft)
11.06.2010 10:20 22,2 C 21,8 C 16,9 UV-I 6,0 C 66 % 72 % 100 % 1007,2 hPa 0,0 l/m 5,6 km/h (1 Bft) 2 min 9,3 km/h (2 Bft)
11.06.2010 10:22 22,2 C 21,9 C 17,0 UV-I 6,0 C 66 % 69 % 100 % 1007,2 hPa 0,0 l/m 6,0 km/h (2 Bft) 2 min 11,9 km/h (2 Bft)
11.06.2010 10:24 22,2 C 21,9 C 17,0 UV-I 6,1 C 66 % 68 % 100 % 1007,2 hPa 0,0 l/m 6,4 km/h (2 Bft) 2 min 15,8 km/h (3 Bft)
11.06.2010 10:26 22,2 C 21,9 C 16,8 UV-I 5,9 C 66 % 69 % 100 % 1007,2 hPa 0,0 l/m 7,6 km/h (2 Bft) 2 min 5,8 km/h (2 Bft)
11.06.2010 10:28 22,3 C 22,0 C 16,8 UV-I 5,8 C 66 % 69 % 100 % 1007,2 hPa 0,0 l/m 7,2 km/h (2 Bft) 2 min 4,2 km/h (1 Bft)
11.06.2010 10:30 22,3 C 22,2 C 16,8 UV-I 5,6 C 66 % 69 % 100 % 1007,2 hPa 0,0 l/m 7,2 km/h (2 Bft) 2 min 4,2 km/h (1 Bft)
11.06.2010 10:32 22,3 C 22,3 C 16,5 UV-I 5,9 C 66 % 70 % 100 % 1007,2 hPa 0,0 l/m 6,0 km/h (2 Bft) 2 min 4,8 km/h (1 Bft)
11.06.2010 10:34 22,3 C 22,3 C 16,5 UV-I 6,1 C 66 % 69 % 100 % 1007,2 hPa 0,0 l/m 5,6 km/h (1 Bft) 2 min 12,2 km/h (2 Bft)
11.06.2010 10:36 22,3 C 22,5 C 16,4 UV-I 6,0 C 66 % 70 % 100 % 1007,2 hPa 0,0 l/m 4,8 km/h (1 Bft) 2 min 6,4 km/h (2 Bft)
11.06.2010 10:38 22,3 C 22,6 C 16,4 UV-I 6,0 C 65 % 69 % 100 % 1007,2 hPa 0,0 l/m 4,4 km/h (1 Bft) 2 min 14,5 km/h (3 Bft)
11.06.2010 10:40 22,3 C 22,7 C 16,4 UV-I 5,9 C 65 % 69 % 100 % 1007,2 hPa 0,0 l/m 5,2 km/h (1 Bft) 2 min 4,2 km/h (1 Bft)
11.06.2010 10:42 22,3 C 22,8 C 16,1 UV-I 5,8 C 65 % 69 % 100 % 1007,2 hPa 0,0 l/m 5,6 km/h (1 Bft) 2 min 0,0 km/h (0 Bft)
11.06.2010 10:44 22,3 C 22,9 C 16,1 UV-I 5,9 C 65 % 67 % 100 % 1007,2 hPa 0,0 l/m 6,4 km/h (2 Bft) 2 min 16,1 km/h (3 Bft)
11.06.2010 10:46 22,2 C 22,9 C 15,7 UV-I 5,7 C 65 % 65 % 100 % 1007,2 hPa 0,0 l/m 7,2 km/h (2 Bft) 2 min 10,6 km/h (2 Bft)
11.06.2010 10:48 22,2 C 22,8 C 15,7 UV-I 5,5 C 65 % 64 % 100 % 1007,2 hPa 0,0 l/m 8,4 km/h (2 Bft) 2 min 16,4 km/h (3 Bft)
11.06.2010 10:50 22,2 C 22,8 C 15,7 UV-I 5,5 C 65 % 63 % 100 % 1007,2 hPa 0,0 l/m 8,4 km/h (2 Bft) 2 min 16,4 km/h (3 Bft)
11.06.2010 10:52 22,2 C 22,8 C 15,1 UV-I 5,1 C 65 % 64 % 100 % 1007,2 hPa 0,0 l/m 10,4 km/h (2 Bft) 2 min 12,2 km/h (2 Bft)
11.06.2010 10:56 22,2 C 22,9 C 14,9 UV-I 4,7 C 64 % 64 % 100 % 1007,2 hPa 0,0 l/m 12,8 km/h (3 Bft) 2 min 27,7 km/h (4 Bft)
11.06.2010 10:58 22,2 C 22,9 C 14,9 UV-I 4,5 C 64 % 63 % 100 % 1007,2 hPa 0,0 l/m 12,8 km/h (3 Bft) 2 min 6,1 km/h (2 Bft)
11.06.2010 11:00 22,2 C 22,9 C 14,9 UV-I 4,6 C 64 % 64 % 100 % 1007,2 hPa 0,0 l/m 12,8 km/h (3 Bft) 2 min 27,7 km/h (4 Bft)
11.06.2010 11:02 22,2 C 23,0 C 14,8 UV-I 4,6 C 64 % 64 % 100 % 1007,2 hPa 0,0 l/m 12,4 km/h (3 Bft) 2 min 10,0 km/h (2 Bft)
11.06.2010 11:04 22,3 C 23,1 C 14,8 UV-I 4,4 C 64 % 63 % 100 % 1007,2 hPa 0,0 l/m 12,4 km/h (3 Bft) 2 min 12,9 km/h (3 Bft)
11.06.2010 11:06 22,2 C 23,0 C 14,7 UV-I 4,5 C 64 % 62 % 100 % 1007,2 hPa 0,0 l/m 11,2 km/h (2 Bft) 2 min 7,7 km/h (2 Bft)
11.06.2010 11:08 22,2 C 23,0 C 14,7 UV-I 4,6 C 64 % 62 % 100 % 1007,2 hPa 0,0 l/m 11,2 km/h (2 Bft) 2 min 7,7 km/h (2 Bft)
11.06.2010 11:10 22,2 C 23,0 C 14,7 UV-I 4,6 C 64 % 62 % 100 % 1007,2 hPa 0,0 l/m 11,2 km/h (2 Bft) 2 min 7,7 km/h (2 Bft)
11.06.2010 11:12 22,2 C 23,1 C 14,6 UV-I 4,3 C 63 % 62 % 100 % 1008,0 hPa 0,0 l/m 12,4 km/h (3 Bft) 2 min 13,8 km/h (3 Bft)
11.06.2010 11:14 22,2 C 23,2 C 14,6 UV-I 4,3 C 63 % 62 % 100 % 1008,0 hPa 0,0 l/m 12,0 km/h (2 Bft) 2 min 18,7 km/h (3 Bft)
11.06.2010 11:16 22,2 C 23,2 C 14,2 UV-I 4,3 C 63 % 62 % 100 % 1008,0 hPa 0,0 l/m 12,4 km/h (3 Bft) 2 min 8,0 km/h (2 Bft)
11.06.2010 11:18 22,2 C 23,3 C 14,2 UV-I 4,1 C 63 % 62 % 100 % 1008,0 hPa 0,0 l/m 13,3 km/h (3 Bft) 2 min 12,2 km/h (2 Bft)
11.06.2010 11:20 22,4 C 23,3 C 14,2 UV-I 4,1 C 63 % 62 % 100 % 1008,0 hPa 0,0 l/m 12,8 km/h (3 Bft) 2 min 8,7 km/h (2 Bft)
11.06.2010 11:22 22,4 C 23,3 C 13,5 UV-I 4,1 C 63 % 62 % 100 % 1008,0 hPa 0,0 l/m 12,0 km/h (2 Bft) 2 min 15,1 km/h (3 Bft)
11.06.2010 11:24 22,4 C 23,3 C 13,5 UV-I 4,2 C 63 % 62 % 100 % 1008,0 hPa 0,0 l/m 12,4 km/h (3 Bft) 2 min 10,9 km/h (2 Bft)
11.06.2010 11:26 22,4 C 23,4 C 12,9 UV-I 4,1 C 63 % 63 % 100 % 1008,0 hPa 0,0 l/m 11,6 km/h (2 Bft) 2 min 10,9 km/h (2 Bft)
11.06.2010 11:28 22,4 C 23,5 C 12,9 UV-I 4,2 C 63 % 63 % 100 % 1008,0 hPa 0,0 l/m 10,8 km/h (2 Bft) 2 min 10,9 km/h (2 Bft)
11.06.2010 11:30 22,4 C 23,5 C 12,9 UV-I 4,2 C 63 % 62 % 100 % 1008,0 hPa 0,0 l/m 10,8 km/h (2 Bft) 2 min 10,9 km/h (2 Bft)
11.06.2010 11:32 22,4 C 23,5 C 12,0 UV-I 4,4 C 63 % 62 % 100 % 1007,7 hPa 0,0 l/m 10,8 km/h (2 Bft) 2 min 13,5 km/h (3 Bft)
11.06.2010 11:34 22,4 C 23,6 C 12,0 UV-I 4,3 C 63 % 62 % 100 % 1007,7 hPa 0,0 l/m 10,0 km/h (2 Bft) 2 min 7,1 km/h (2 Bft)
11.06.2010 11:36 22,4 C 23,6 C 11,2 UV-I 4,4 C 63 % 64 % 100 % 1007,7 hPa 0,0 l/m 8,8 km/h (2 Bft) 2 min 4,5 km/h (1 Bft)
11.06.2010 11:38 22,4 C 23,9 C 11,2 UV-I 4,5 C 63 % 63 % 100 % 1007,7 hPa 0,0 l/m 8,8 km/h (2 Bft) 2 min 5,5 km/h (1 Bft)
11.06.2010 11:40 22,4 C 23,8 C 11,2 UV-I 4,9 C 63 % 64 % 100 % 1007,7 hPa 0,0 l/m 6,4 km/h (2 Bft) 2 min 3,9 km/h (1 Bft)
11.06.2010 11:42 22,4 C 24,0 C 10,7 UV-I 5,0 C 63 % 62 % 100 % 1007,7 hPa 0,0 l/m 6,8 km/h (2 Bft) 2 min 7,4 km/h (2 Bft)
11.06.2010 11:46 22,5 C 24,0 C 10,1 UV-I 4,9 C 63 % 59 % 100 % 1007,7 hPa 0,0 l/m 8,0 km/h (2 Bft) 2 min 7,1 km/h (2 Bft)
11.06.2010 11:48 22,5 C 24,1 C 10,1 UV-I 4,7 C 63 % 61 % 100 % 1007,7 hPa 0,0 l/m 8,0 km/h (2 Bft) 2 min 5,1 km/h (1 Bft)
11.06.2010 11:50 22,5 C 24,0 C 10,1 UV-I 4,8 C 63 % 58 % 100 % 1007,7 hPa 0,0 l/m 8,0 km/h (2 Bft) 2 min 5,1 km/h (1 Bft)
11.06.2010 11:52 22,5 C 24,0 C 9,7 UV-I 4,8 C 63 % 58 % 100 % 1008,0 hPa 0,0 l/m 12,0 km/h (2 Bft) 2 min 12,6 km/h (3 Bft)
11.06.2010 11:54 22,5 C 24,0 C 9,7 UV-I 4,5 C 63 % 58 % 100 % 1008,0 hPa 0,0 l/m 12,0 km/h (2 Bft) 2 min 14,2 km/h (3 Bft)
11.06.2010 11:56 22,5 C 24,0 C 9,3 UV-I 4,3 C 63 % 57 % 100 % 1008,0 hPa 0,0 l/m 12,0 km/h (2 Bft) 2 min 16,4 km/h (3 Bft)
11.06.2010 11:58 22,6 C 24,0 C 9,3 UV-I 4,2 C 63 % 57 % 100 % 1008,0 hPa 0,0 l/m 13,3 km/h (3 Bft) 2 min 15,1 km/h (3 Bft)
11.06.2010 12:00 22,6 C 24,0 C 9,3 UV-I 3,9 C 63 % 58 % 100 % 1008,0 hPa 0,0 l/m 13,7 km/h (3 Bft) 2 min 13,8 km/h (3 Bft)
11.06.2010 12:04 22,6 C 23,9 C 9,2 UV-I 3,8 C 63 % 58 % 100 % 1008,0 hPa 0,0 l/m 14,1 km/h (3 Bft) 2 min 25,4 km/h (4 Bft)
11.06.2010 12:06 22,6 C 23,8 C 8,5 UV-I 3,6 C 63 % 57 % 100 % 1008,0 hPa 0,0 l/m 14,5 km/h (3 Bft) 2 min 20,6 km/h (4 Bft)
11.06.2010 12:08 22,6 C 23,9 C 8,5 UV-I 3,5 C 63 % 58 % 100 % 1008,0 hPa 0,0 l/m 14,5 km/h (3 Bft) 2 min 11,3 km/h (2 Bft)
11.06.2010 12:10 22,6 C 24,1 C 8,5 UV-I 3,3 C 63 % 59 % 94 % 1008,0 hPa 0,0 l/m 14,5 km/h (3 Bft) 2 min 11,3 km/h (2 Bft)
11.06.2010 12:12 22,6 C 24,0 C 8,8 UV-I 3,6 C 62 % 58 % 100 % 1008,1 hPa 0,0 l/m 12,8 km/h (3 Bft) 2 min 11,3 km/h (2 Bft)
11.06.2010 12:14 22,6 C 24,1 C 8,8 UV-I 3,7 C 62 % 59 % 100 % 1008,1 hPa 0,0 l/m 12,4 km/h (3 Bft) 2 min 6,8 km/h (2 Bft)
11.06.2010 12:16 22,6 C 24,3 C 8,5 UV-I 3,7 C 62 % 58 % 100 % 1008,1 hPa 0,0 l/m 11,6 km/h (2 Bft) 2 min 12,9 km/h (3 Bft)
11.06.2010 12:18 22,7 C 24,3 C 8,5 UV-I 3,7 C 62 % 58 % 100 % 1008,1 hPa 0,0 l/m 12,0 km/h (2 Bft) 2 min 16,1 km/h (3 Bft)
11.06.2010 12:22 22,7 C 24,3 C 8,4 UV-I 3,7 C 62 % 58 % 100 % 1008,1 hPa 0,0 l/m 12,4 km/h (3 Bft) 2 min 18,3 km/h (3 Bft)
11.06.2010 12:26 22,7 C 24,5 C 8,2 UV-I 3,8 C 62 % 57 % 100 % 1008,1 hPa 0,0 l/m 11,6 km/h (2 Bft) 2 min 8,7 km/h (2 Bft)
11.06.2010 12:28 22,8 C 24,5 C 8,2 UV-I 3,9 C 62 % 58 % 100 % 1008,1 hPa 0,0 l/m 10,0 km/h (2 Bft) 2 min 9,0 km/h (2 Bft)
11.06.2010 12:30 22,8 C 24,7 C 8,2 UV-I 3,7 C 62 % 58 % 100 % 1008,1 hPa 0,0 l/m 10,0 km/h (2 Bft) 2 min 9,0 km/h (2 Bft)
11.06.2010 12:32 22,8 C 24,6 C 8,1 UV-I 4,1 C 62 % 55 % 100 % 1008,2 hPa 0,0 l/m 10,4 km/h (2 Bft) 2 min 20,3 km/h (4 Bft)
11.06.2010 12:34 22,8 C 24,7 C 8,1 UV-I 3,8 C 62 % 57 % 100 % 1008,2 hPa 0,0 l/m 10,8 km/h (2 Bft) 2 min 12,2 km/h (2 Bft)
11.06.2010 12:36 22,8 C 24,7 C 8,1 UV-I 3,8 C 62 % 57 % 100 % 1008,2 hPa 0,0 l/m 11,2 km/h (2 Bft) 2 min 7,1 km/h (2 Bft)
11.06.2010 12:38 22,8 C 24,7 C 8,1 UV-I 3,8 C 62 % 57 % 100 % 1008,2 hPa 0,0 l/m 12,0 km/h (2 Bft) 2 min 18,0 km/h (3 Bft)
11.06.2010 12:40 22,8 C 24,8 C 8,1 UV-I 3,7 C 62 % 58 % 100 % 1008,2 hPa 0,0 l/m 11,2 km/h (2 Bft) 2 min 5,8 km/h (2 Bft)
11.06.2010 12:42 22,8 C 24,8 C 8,0 UV-I 3,9 C 62 % 57 % 100 % 1008,2 hPa 0,0 l/m 10,8 km/h (2 Bft) 2 min 10,3 km/h (2 Bft)
11.06.2010 12:46 22,9 C 24,8 C 8,0 UV-I 3,9 C 62 % 56 % 100 % 1008,2 hPa 0,0 l/m 10,8 km/h (2 Bft) 2 min 10,6 km/h (2 Bft)
11.06.2010 12:48 22,9 C 24,9 C 8,0 UV-I 3,8 C 62 % 56 % 100 % 1008,2 hPa 0,0 l/m 10,8 km/h (2 Bft) 2 min 10,0 km/h (2 Bft)
11.06.2010 12:51 23,0 C 24,9 C 8,0 UV-I 3,7 C 62 % 57 % 100 % 1008,2 hPa 0,0 l/m 12,0 km/h (2 Bft) 2 min 10,6 km/h (2 Bft)
11.06.2010 12:52 23,0 C 24,9 C 8,0 UV-I 3,7 C 62 % 57 % 100 % 1008,2 hPa 0,0 l/m 12,0 km/h (2 Bft) 1 min 10,6 km/h (2 Bft)
11.06.2010 12:54 23,0 C 25,1 C 8,0 UV-I 3,5 C 62 % 57 % 100 % 1008,2 hPa 0,0 l/m 10,8 km/h (2 Bft) 2 min 10,0 km/h (2 Bft)
11.06.2010 12:56 23,0 C 25,0 C 8,1 UV-I 3,7 C 62 % 57 % 100 % 1008,2 hPa 0,0 l/m 9,6 km/h (2 Bft) 2 min 7,1 km/h (2 Bft)
11.06.2010 12:58 23,0 C 25,1 C 8,1 UV-I 3,7 C 62 % 58 % 100 % 1008,2 hPa 0,0 l/m 10,0 km/h (2 Bft) 2 min 10,0 km/h (2 Bft)
11.06.2010 13:00 23,0 C 25,2 C 8,1 UV-I 3,7 C 62 % 56 % 100 % 1008,2 hPa 0,0 l/m 9,6 km/h (2 Bft) 2 min 8,4 km/h (2 Bft)
11.06.2010 13:02 23,0 C 25,1 C 8,1 UV-I 3,7 C 62 % 57 % 100 % 1008,2 hPa 0,0 l/m 9,6 km/h (2 Bft) 2 min 10,6 km/h (2 Bft)
11.06.2010 13:04 23,1 C 25,2 C 8,1 UV-I 3,7 C 62 % 57 % 100 % 1008,2 hPa 0,0 l/m 10,0 km/h (2 Bft) 2 min 20,3 km/h (4 Bft)
11.06.2010 13:06 23,1 C 25,3 C 8,3 UV-I 3,6 C 62 % 57 % 100 % 1008,2 hPa 0,0 l/m 10,4 km/h (2 Bft) 2 min 9,0 km/h (2 Bft)
11.06.2010 13:08 23,1 C 25,3 C 8,3 UV-I 3,8 C 62 % 56 % 100 % 1008,2 hPa 0,0 l/m 11,2 km/h (2 Bft) 2 min 25,4 km/h (4 Bft)
11.06.2010 13:10 23,1 C 25,4 C 8,3 UV-I 3,7 C 62 % 57 % 100 % 1008,2 hPa 0,0 l/m 11,2 km/h (2 Bft) 2 min 25,4 km/h (4 Bft)
11.06.2010 13:12 23,2 C 25,5 C 8,5 UV-I 3,9 C 62 % 57 % 100 % 1008,4 hPa 0,0 l/m 9,2 km/h (2 Bft) 2 min 14,2 km/h (3 Bft)
11.06.2010 13:14 23,2 C 25,5 C 8,5 UV-I 4,0 C 62 % 56 % 100 % 1008,4 hPa 0,0 l/m 9,6 km/h (2 Bft) 2 min 11,6 km/h (2 Bft)
11.06.2010 13:16 23,2 C 25,5 C 8,5 UV-I 4,1 C 62 % 56 % 100 % 1008,4 hPa 0,0 l/m 9,2 km/h (2 Bft) 2 min 8,4 km/h (2 Bft)
11.06.2010 13:18 23,2 C 25,5 C 8,5 UV-I 4,1 C 62 % 55 % 100 % 1008,4 hPa 0,0 l/m 10,0 km/h (2 Bft) 2 min 14,5 km/h (3 Bft)
11.06.2010 13:20 23,2 C 25,5 C 8,5 UV-I 3,9 C 62 % 55 % 100 % 1008,4 hPa 0,0 l/m 9,6 km/h (2 Bft) 2 min 13,2 km/h (3 Bft)
11.06.2010 13:22 23,2 C 25,4 C 8,3 UV-I 4,0 C 62 % 56 % 100 % 1008,4 hPa 0,0 l/m 10,4 km/h (2 Bft) 2 min 12,2 km/h (2 Bft)
11.06.2010 13:24 23,3 C 25,4 C 8,3 UV-I 3,5 C 62 % 55 % 100 % 1008,4 hPa 0,0 l/m 10,4 km/h (2 Bft) 2 min 6,8 km/h (2 Bft)
11.06.2010 13:26 23,2 C 25,3 C 8,3 UV-I 3,3 C 61 % 56 % 94 % 1008,4 hPa 0,0 l/m 10,4 km/h (2 Bft) 2 min 10,6 km/h (2 Bft)
11.06.2010 13:28 23,2 C 25,4 C 8,3 UV-I 3,4 C 61 % 55 % 97 % 1008,4 hPa 0,0 l/m 10,0 km/h (2 Bft) 2 min 20,9 km/h (4 Bft)
11.06.2010 13:30 23,2 C 25,5 C 8,3 UV-I 3,3 C 61 % 56 % 94 % 1008,4 hPa 0,0 l/m 10,0 km/h (2 Bft) 2 min 20,9 km/h (4 Bft)
11.06.2010 13:32 23,4 C 25,6 C 8,6 UV-I 3,6 C 61 % 56 % 100 % 1008,5 hPa 0,0 l/m 10,8 km/h (2 Bft) 2 min 12,2 km/h (2 Bft)
11.06.2010 13:34 23,4 C 25,7 C 8,6 UV-I 3,5 C 61 % 54 % 100 % 1008,5 hPa 0,0 l/m 10,8 km/h (2 Bft) 2 min 19,6 km/h (3 Bft)
11.06.2010 13:36 23,4 C 25,7 C 8,3 UV-I 3,5 C 61 % 55 % 100 % 1008,5 hPa 0,0 l/m 10,8 km/h (2 Bft) 2 min 10,6 km/h (2 Bft)
11.06.2010 13:38 23,4 C 25,8 C 8,3 UV-I 3,6 C 61 % 55 % 100 % 1008,5 hPa 0,0 l/m 12,0 km/h (2 Bft) 2 min 9,7 km/h (2 Bft)
11.06.2010 13:40 23,5 C 25,8 C 8,3 UV-I 3,6 C 61 % 54 % 100 % 1008,5 hPa 0,0 l/m 12,4 km/h (3 Bft) 2 min 10,0 km/h (2 Bft)
11.06.2010 13:42 23,5 C 25,8 C 8,4 UV-I 3,7 C 61 % 55 % 100 % 1008,5 hPa 0,0 l/m 12,4 km/h (3 Bft) 2 min 12,2 km/h (2 Bft)
11.06.2010 13:44 23,5 C 26,0 C 8,4 UV-I 3,6 C 61 % 56 % 100 % 1008,5 hPa 0,0 l/m 11,2 km/h (2 Bft) 2 min 6,8 km/h (2 Bft)
11.06.2010 13:46 23,6 C 26,0 C 8,5 UV-I 3,9 C 61 % 53 % 100 % 1008,5 hPa 0,0 l/m 11,6 km/h (2 Bft) 2 min 10,3 km/h (2 Bft)
11.06.2010 13:48 23,6 C 26,1 C 8,5 UV-I 3,7 C 61 % 54 % 100 % 1008,5 hPa 0,0 l/m 11,2 km/h (2 Bft) 2 min 11,6 km/h (2 Bft)
11.06.2010 13:50 23,6 C 26,1 C 8,5 UV-I 3,7 C 61 % 55 % 100 % 1008,5 hPa 0,0 l/m 11,2 km/h (2 Bft) 2 min 11,6 km/h (2 Bft)
11.06.2010 13:52 23,6 C 26,1 C 8,6 UV-I 3,9 C 61 % 54 % 100 % 1008,8 hPa 0,0 l/m 9,6 km/h (2 Bft) 2 min 6,1 km/h (2 Bft)
11.06.2010 13:54 23,6 C 26,3 C 8,6 UV-I 3,7 C 61 % 54 % 100 % 1008,8 hPa 0,0 l/m 10,0 km/h (2 Bft) 2 min 7,7 km/h (2 Bft)
11.06.2010 13:58 23,7 C 26,3 C 8,8 UV-I 3,8 C 61 % 49 % 100 % 1008,8 hPa 0,0 l/m 10,8 km/h (2 Bft) 2 min 24,1 km/h (4 Bft)
11.06.2010 14:00 23,7 C 26,2 C 8,8 UV-I 3,8 C 60 % 50 % 100 % 1008,8 hPa 0,0 l/m 12,0 km/h (2 Bft) 2 min 12,2 km/h (2 Bft)
11.06.2010 14:02 23,8 C 26,3 C 8,8 UV-I 3,7 C 60 % 52 % 100 % 1008,8 hPa 0,0 l/m 12,0 km/h (2 Bft) 2 min 10,6 km/h (2 Bft)
11.06.2010 14:04 23,8 C 26,3 C 8,8 UV-I 3,8 C 60 % 53 % 100 % 1008,8 hPa 0,0 l/m 12,0 km/h (2 Bft) 2 min 10,3 km/h (2 Bft)
11.06.2010 14:06 23,8 C 26,4 C 8,3 UV-I 3,6 C 60 % 51 % 100 % 1008,8 hPa 0,0 l/m 12,0 km/h (2 Bft) 2 min 9,0 km/h (2 Bft)
11.06.2010 14:08 23,9 C 26,5 C 8,3 UV-I 3,5 C 60 % 51 % 100 % 1008,8 hPa 0,0 l/m 10,8 km/h (2 Bft) 2 min 5,8 km/h (2 Bft)
11.06.2010 14:10 23,9 C 26,4 C 8,3 UV-I 3,6 C 59 % 51 % 100 % 1008,8 hPa 0,0 l/m 10,8 km/h (2 Bft) 2 min 5,8 km/h (2 Bft)
11.06.2010 14:12 23,9 C 26,6 C 9,3 UV-I 3,6 C 59 % 51 % 100 % 1008,8 hPa 0,0 l/m 10,8 km/h (2 Bft) 2 min 19,3 km/h (3 Bft)
11.06.2010 14:16 24,0 C 26,6 C 8,3 UV-I 3,8 C 59 % 52 % 100 % 1008,8 hPa 0,0 l/m 10,4 km/h (2 Bft) 2 min 6,4 km/h (2 Bft)
11.06.2010 14:18 24,1 C 26,7 C 8,3 UV-I 3,5 C 59 % 52 % 100 % 1008,8 hPa 0,0 l/m 10,0 km/h (2 Bft) 2 min 5,5 km/h (1 Bft)
11.06.2010 14:20 24,1 C 26,7 C 8,3 UV-I 3,5 C 59 % 53 % 100 % 1008,8 hPa 0,0 l/m 8,8 km/h (2 Bft) 2 min 5,8 km/h (2 Bft)
11.06.2010 14:22 24,2 C 26,8 C 9,3 UV-I 3,8 C 59 % 52 % 100 % 1008,8 hPa 0,0 l/m 8,0 km/h (2 Bft) 2 min 6,4 km/h (2 Bft)
11.06.2010 14:24 24,2 C 26,8 C 9,3 UV-I 4,2 C 59 % 49 % 100 % 1008,8 hPa 0,0 l/m 7,2 km/h (2 Bft) 2 min 10,3 km/h (2 Bft)
11.06.2010 14:26 24,3 C 26,9 C 8,5 UV-I 4,1 C 59 % 48 % 100 % 1008,8 hPa 0,0 l/m 8,4 km/h (2 Bft) 2 min 16,4 km/h (3 Bft)
11.06.2010 14:28 24,4 C 26,9 C 8,5 UV-I 3,9 C 59 % 48 % 100 % 1008,8 hPa 0,0 l/m 8,8 km/h (2 Bft) 2 min 8,4 km/h (2 Bft)
11.06.2010 14:30 24,4 C 26,8 C 8,5 UV-I 4,0 C 59 % 49 % 100 % 1008,8 hPa 0,0 l/m 8,8 km/h (2 Bft) 2 min 8,4 km/h (2 Bft)
11.06.2010 14:32 24,5 C 26,8 C 7,0 UV-I 3,4 C 58 % 49 % 97 % 1009,5 hPa 0,0 l/m 9,6 km/h (2 Bft) 2 min 8,0 km/h (2 Bft)
11.06.2010 14:34 24,5 C 26,5 C 7,0 UV-I 3,5 C 58 % 48 % 100 % 1009,5 hPa 0,0 l/m 9,6 km/h (2 Bft) 2 min 7,1 km/h (2 Bft)
11.06.2010 14:36 24,6 C 26,3 C 6,6 UV-I 3,0 C 58 % 48 % 86 % 1009,5 hPa 0,0 l/m 8,8 km/h (2 Bft) 2 min 10,3 km/h (2 Bft)
11.06.2010 14:38 24,6 C 26,4 C 6,6 UV-I 2,6 C 58 % 49 % 74 % 1009,5 hPa 0,0 l/m 8,0 km/h (2 Bft) 0 min 8,7 km/h (2 Bft)
11.06.2010 14:40 24,7 C 26,4 C 6,6 UV-I 2,8 C 57 % 50 % 80 % 1009,5 hPa 0,0 l/m 8,0 km/h (2 Bft) 0 min 0,0 km/h (0 Bft)
11.06.2010 14:42 24,7 C 26,5 C 7,9 UV-I 2,8 C 57 % 50 % 80 % 1009,5 hPa 0,0 l/m 8,8 km/h (2 Bft) 0 min 12,6 km/h (3 Bft)
11.06.2010 14:44 24,8 C 26,5 C 7,9 UV-I 2,8 C 57 % 49 % 80 % 1009,5 hPa 0,0 l/m 8,8 km/h (2 Bft) 0 min 18,3 km/h (3 Bft)
11.06.2010 14:46 24,8 C 26,5 C 8,9 UV-I 2,7 C 57 % 47 % 77 % 1009,5 hPa 0,0 l/m 9,6 km/h (2 Bft) 0 min 12,2 km/h (2 Bft)
11.06.2010 14:48 24,9 C 26,5 C 8,9 UV-I 2,7 C 56 % 48 % 77 % 1009,5 hPa 0,0 l/m 10,0 km/h (2 Bft) 0 min 13,2 km/h (3 Bft)
11.06.2010 14:50 24,9 C 26,7 C 8,9 UV-I 2,5 C 56 % 48 % 71 % 1009,5 hPa 0,0 l/m 10,0 km/h (2 Bft) 0 min 13,2 km/h (3 Bft)
11.06.2010 14:52 25,0 C 26,7 C 8,9 UV-I 2,9 C 55 % 47 % 83 % 1009,6 hPa 0,0 l/m 11,6 km/h (2 Bft) 2 min 10,0 km/h (2 Bft)
11.06.2010 14:54 25,0 C 26,6 C 8,9 UV-I 3,1 C 55 % 47 % 89 % 1009,6 hPa 0,0 l/m 11,6 km/h (2 Bft) 2 min 26,1 km/h (4 Bft)
11.06.2010 14:56 25,1 C 26,5 C 7,4 UV-I 2,7 C 55 % 46 % 77 % 1009,6 hPa 0,0 l/m 12,4 km/h (3 Bft) 0 min 19,3 km/h (3 Bft)
11.06.2010 14:58 25,1 C 26,5 C 7,4 UV-I 2,6 C 55 % 48 % 74 % 1009,6 hPa 0,0 l/m 12,0 km/h (2 Bft) 0 min 6,8 km/h (2 Bft)
11.06.2010 15:00 25,2 C 26,7 C 7,4 UV-I 2,7 C 54 % 48 % 77 % 1009,6 hPa 0,0 l/m 11,2 km/h (2 Bft) 0 min 8,4 km/h (2 Bft)
11.06.2010 15:02 25,2 C 26,6 C 8,1 UV-I 3,1 C 54 % 48 % 89 % 1009,6 hPa 0,0 l/m 10,0 km/h (2 Bft) 2 min 8,0 km/h (2 Bft)
11.06.2010 15:04 25,3 C 26,8 C 8,1 UV-I 2,9 C 54 % 47 % 83 % 1009,6 hPa 0,0 l/m 11,2 km/h (2 Bft) 2 min 19,6 km/h (3 Bft)
11.06.2010 15:06 25,2 C 26,7 C 8,7 UV-I 3,0 C 54 % 47 % 86 % 1009,6 hPa 0,0 l/m 11,2 km/h (2 Bft) 2 min 8,0 km/h (2 Bft)
11.06.2010 15:08 25,4 C 26,9 C 8,7 UV-I 2,8 C 54 % 47 % 80 % 1009,6 hPa 0,0 l/m 10,4 km/h (2 Bft) 0 min 7,7 km/h (2 Bft)
11.06.2010 15:10 25,5 C 26,8 C 8,7 UV-I 2,9 C 54 % 47 % 83 % 1009,6 hPa 0,0 l/m 10,4 km/h (2 Bft) 2 min 7,7 km/h (2 Bft)
11.06.2010 15:12 25,5 C 27,0 C 8,7 UV-I 3,0 C 53 % 45 % 86 % 1010,4 hPa 0,0 l/m 12,0 km/h (2 Bft) 2 min 29,3 km/h (5 Bft)
11.06.2010 15:14 25,6 C 27,0 C 8,7 UV-I 3,1 C 53 % 46 % 89 % 1010,4 hPa 0,0 l/m 11,6 km/h (2 Bft) 2 min 3,9 km/h (1 Bft)
11.06.2010 15:16 25,6 C 27,1 C 8,8 UV-I 3,1 C 53 % 46 % 89 % 1010,4 hPa 0,0 l/m 10,0 km/h (2 Bft) 2 min 13,8 km/h (3 Bft)
11.06.2010 15:18 25,7 C 27,0 C 8,8 UV-I 3,3 C 53 % 47 % 94 % 1010,4 hPa 0,0 l/m 10,4 km/h (2 Bft) 2 min 13,5 km/h (3 Bft)
11.06.2010 15:20 25,8 C 27,1 C 8,8 UV-I 3,2 C 52 % 46 % 91 % 1010,4 hPa 0,0 l/m 11,2 km/h (2 Bft) 2 min 16,4 km/h (3 Bft)
11.06.2010 15:22 25,8 C 27,2 C 9,0 UV-I 3,1 C 52 % 45 % 89 % 1010,4 hPa 0,0 l/m 11,6 km/h (2 Bft) 2 min 23,5 km/h (4 Bft)
11.06.2010 15:24 25,9 C 27,1 C 9,0 UV-I 3,2 C 52 % 46 % 91 % 1010,4 hPa 0,0 l/m 12,0 km/h (2 Bft) 2 min 11,6 km/h (2 Bft)
11.06.2010 15:26 26,0 C 27,0 C 8,6 UV-I 3,3 C 51 % 46 % 94 % 1010,4 hPa 0,0 l/m 12,4 km/h (3 Bft) 2 min 24,1 km/h (4 Bft)
11.06.2010 15:28 26,0 C 27,0 C 8,6 UV-I 3,2 C 51 % 47 % 91 % 1010,4 hPa 0,0 l/m 12,4 km/h (3 Bft) 2 min 19,3 km/h (3 Bft)
11.06.2010 15:30 26,1 C 27,0 C 8,6 UV-I 3,2 C 51 % 46 % 91 % 1010,4 hPa 0,0 l/m 12,4 km/h (3 Bft) 2 min 19,3 km/h (3 Bft)
11.06.2010 15:32 26,2 C 26,9 C 7,9 UV-I 2,9 C 51 % 47 % 83 % 1011,1 hPa 0,0 l/m 12,4 km/h (3 Bft) 2 min 7,4 km/h (2 Bft)
11.06.2010 15:34 26,2 C 26,9 C 7,9 UV-I 2,6 C 51 % 47 % 74 % 1011,1 hPa 0,0 l/m 11,6 km/h (2 Bft) 0 min 9,3 km/h (2 Bft)
11.06.2010 15:36 26,2 C 27,0 C 9,4 UV-I 2,5 C 51 % 46 % 71 % 1011,1 hPa 0,0 l/m 11,2 km/h (2 Bft) 0 min 16,1 km/h (3 Bft)
11.06.2010 15:38 26,2 C 27,1 C 9,4 UV-I 2,7 C 51 % 46 % 77 % 1011,1 hPa 0,0 l/m 10,8 km/h (2 Bft) 0 min 12,6 km/h (3 Bft)
11.06.2010 15:40 26,4 C 27,0 C 9,4 UV-I 3,0 C 51 % 46 % 86 % 1011,1 hPa 0,0 l/m 10,8 km/h (2 Bft) 2 min 5,8 km/h (2 Bft)
11.06.2010 15:42 26,4 C 27,0 C 9,3 UV-I 3,1 C 50 % 46 % 89 % 1011,1 hPa 0,0 l/m 10,8 km/h (2 Bft) 2 min 10,3 km/h (2 Bft)
11.06.2010 15:44 26,5 C 26,8 C 9,3 UV-I 3,2 C 50 % 45 % 91 % 1011,1 hPa 0,0 l/m 12,0 km/h (2 Bft) 2 min 20,9 km/h (4 Bft)
11.06.2010 15:46 26,5 C 26,9 C 9,3 UV-I 2,8 C 50 % 46 % 80 % 1011,1 hPa 0,0 l/m 12,8 km/h (3 Bft) 0 min 17,4 km/h (3 Bft)
11.06.2010 15:48 26,6 C 26,8 C 9,3 UV-I 2,8 C 50 % 46 % 80 % 1011,1 hPa 0,0 l/m 12,8 km/h (3 Bft) 0 min 18,0 km/h (3 Bft)
11.06.2010 15:50 26,7 C 26,9 C 9,3 UV-I 2,7 C 49 % 45 % 77 % 1011,1 hPa 0,0 l/m 12,8 km/h (3 Bft) 0 min 18,0 km/h (3 Bft)
11.06.2010 15:52 26,7 C 27,1 C 9,7 UV-I 2,7 C 49 % 46 % 77 % 1012,1 hPa 0,0 l/m 13,7 km/h (3 Bft) 0 min 7,7 km/h (2 Bft)
11.06.2010 15:54 26,8 C 27,1 C 9,7 UV-I 2,9 C 49 % 44 % 83 % 1012,1 hPa 0,0 l/m 14,1 km/h (3 Bft) 2 min 12,2 km/h (2 Bft)
11.06.2010 15:56 26,8 C 27,1 C 10,0 UV-I 3,0 C 49 % 45 % 86 % 1012,1 hPa 0,0 l/m 13,3 km/h (3 Bft) 2 min 6,8 km/h (2 Bft)
11.06.2010 15:58 26,9 C 27,2 C 10,0 UV-I 3,2 C 49 % 45 % 91 % 1012,1 hPa 0,0 l/m 12,8 km/h (3 Bft) 2 min 13,5 km/h (3 Bft)
11.06.2010 16:00 27,0 C 27,3 C 10,0 UV-I 3,3 C 48 % 44 % 94 % 1012,1 hPa 0,0 l/m 12,8 km/h (3 Bft) 2 min 18,3 km/h (3 Bft)
11.06.2010 16:02 27,0 C 27,2 C 9,9 UV-I 3,4 C 48 % 45 % 97 % 1012,1 hPa 0,0 l/m 11,6 km/h (2 Bft) 2 min 6,8 km/h (2 Bft)
11.06.2010 16:04 27,1 C 27,2 C 9,9 UV-I 3,4 C 48 % 45 % 97 % 1012,1 hPa 0,0 l/m 11,6 km/h (2 Bft) 2 min 15,1 km/h (3 Bft)
11.06.2010 16:06 27,1 C 27,3 C 10,2 UV-I 3,4 C 48 % 43 % 97 % 1012,1 hPa 0,0 l/m 11,6 km/h (2 Bft) 2 min 11,6 km/h (2 Bft)
11.06.2010 16:08 27,2 C 27,3 C 10,2 UV-I 3,5 C 48 % 42 % 100 % 1012,1 hPa 0,0 l/m 12,8 km/h (3 Bft) 2 min 20,3 km/h (4 Bft)
11.06.2010 16:10 27,3 C 27,2 C 10,2 UV-I 3,6 C 47 % 41 % 100 % 1012,1 hPa 0,0 l/m 12,8 km/h (3 Bft) 2 min 34,1 km/h (5 Bft)
11.06.2010 16:12 27,2 C 27,2 C 10,4 UV-I 3,3 C 47 % 41 % 94 % 1012,7 hPa 0,0 l/m 14,5 km/h (3 Bft) 2 min 12,2 km/h (2 Bft)
11.06.2010 16:14 27,4 C 27,2 C 10,4 UV-I 3,3 C 46 % 41 % 94 % 1012,7 hPa 0,0 l/m 15,3 km/h (3 Bft) 2 min 25,7 km/h (4 Bft)
11.06.2010 16:16 27,4 C 27,2 C 10,6 UV-I 3,4 C 46 % 42 % 97 % 1012,7 hPa 0,0 l/m 14,9 km/h (3 Bft) 2 min 11,3 km/h (2 Bft)
11.06.2010 16:18 27,5 C 27,3 C 10,6 UV-I 3,4 C 46 % 41 % 97 % 1012,7 hPa 0,0 l/m 14,5 km/h (3 Bft) 2 min 10,9 km/h (2 Bft)
11.06.2010 16:20 27,5 C 27,2 C 10,6 UV-I 3,4 C 45 % 42 % 97 % 1012,7 hPa 0,0 l/m 13,3 km/h (3 Bft) 2 min 8,4 km/h (2 Bft)
11.06.2010 16:22 27,6 C 27,2 C 9,2 UV-I 3,1 C 46 % 42 % 89 % 1012,7 hPa 0,0 l/m 12,0 km/h (2 Bft) 2 min 11,6 km/h (2 Bft)
11.06.2010 16:24 27,6 C 27,1 C 9,2 UV-I 3,1 C 45 % 42 % 89 % 1012,7 hPa 0,0 l/m 11,6 km/h (2 Bft) 2 min 10,0 km/h (2 Bft)
11.06.2010 16:26 27,6 C 27,2 C 10,6 UV-I 3,0 C 45 % 44 % 86 % 1012,7 hPa 0,0 l/m 11,2 km/h (2 Bft) 2 min 7,1 km/h (2 Bft)
11.06.2010 16:28 27,6 C 27,2 C 10,6 UV-I 3,3 C 45 % 44 % 94 % 1012,7 hPa 0,0 l/m 11,2 km/h (2 Bft) 2 min 24,8 km/h (4 Bft)
11.06.2010 16:30 27,7 C 27,2 C 10,6 UV-I 3,3 C 45 % 42 % 94 % 1012,7 hPa 0,0 l/m 11,2 km/h (2 Bft) 2 min 24,8 km/h (4 Bft)
11.06.2010 16:32 27,7 C 27,1 C 7,5 UV-I 3,0 C 45 % 42 % 86 % 1012,1 hPa 0,0 l/m 11,2 km/h (2 Bft) 2 min 7,4 km/h (2 Bft)
11.06.2010 16:34 27,7 C 27,1 C 7,5 UV-I 2,4 C 45 % 43 % 69 % 1012,1 hPa 0,0 l/m 10,8 km/h (2 Bft) 0 min 15,8 km/h (3 Bft)
11.06.2010 16:36 27,7 C 26,8 C 7,9 UV-I 2,7 C 45 % 44 % 77 % 1012,1 hPa 0,0 l/m 10,4 km/h (2 Bft) 0 min 9,0 km/h (2 Bft)
11.06.2010 16:38 27,7 C 26,7 C 7,9 UV-I 2,4 C 45 % 42 % 69 % 1012,1 hPa 0,0 l/m 10,8 km/h (2 Bft) 0 min 16,4 km/h (3 Bft)
11.06.2010 16:40 27,6 C 26,5 C 7,9 UV-I 2,0 C 45 % 43 % 57 % 1012,1 hPa 0,0 l/m 10,8 km/h (2 Bft) 0 min 7,7 km/h (2 Bft)
11.06.2010 16:42 27,6 C 26,5 C 5,1 UV-I 1,6 C 45 % 44 % 46 % 1012,1 hPa 0,0 l/m 10,0 km/h (2 Bft) 0 min 11,6 km/h (2 Bft)
11.06.2010 16:44 27,6 C 26,4 C 5,1 UV-I 1,6 C 45 % 46 % 46 % 1012,1 hPa 0,0 l/m 10,0 km/h (2 Bft) 0 min 4,2 km/h (1 Bft)
11.06.2010 16:46 27,6 C 26,6 C 11,6 UV-I 1,9 C 46 % 46 % 54 % 1012,1 hPa 0,0 l/m 10,0 km/h (2 Bft) 0 min 20,6 km/h (4 Bft)
11.06.2010 16:48 27,6 C 26,7 C 11,6 UV-I 2,3 C 46 % 45 % 66 % 1012,1 hPa 0,0 l/m 10,4 km/h (2 Bft) 0 min 10,9 km/h (2 Bft)
11.06.2010 16:50 27,6 C 26,9 C 11,6 UV-I 2,1 C 46 % 45 % 60 % 1012,1 hPa 0,0 l/m 10,4 km/h (2 Bft) 0 min 10,9 km/h (2 Bft)
11.06.2010 16:52 27,6 C 26,9 C 8,7 UV-I 2,6 C 46 % 45 % 74 % 1012,8 hPa 0,0 l/m 9,2 km/h (2 Bft) 0 min 11,6 km/h (2 Bft)
11.06.2010 16:54 27,6 C 27,0 C 8,7 UV-I 2,6 C 46 % 45 % 74 % 1012,8 hPa 0,0 l/m 8,4 km/h (2 Bft) 0 min 4,5 km/h (1 Bft)
11.06.2010 16:56 27,6 C 27,0 C 10,6 UV-I 2,7 C 46 % 45 % 77 % 1012,8 hPa 0,0 l/m 8,8 km/h (2 Bft) 0 min 5,1 km/h (1 Bft)
11.06.2010 16:58 27,6 C 27,1 C 10,6 UV-I 2,6 C 46 % 44 % 74 % 1012,8 hPa 0,0 l/m 8,4 km/h (2 Bft) 0 min 10,9 km/h (2 Bft)
11.06.2010 17:00 27,6 C 27,0 C 10,6 UV-I 2,8 C 46 % 42 % 80 % 1012,8 hPa 0,0 l/m 8,8 km/h (2 Bft) 0 min 6,8 km/h (2 Bft)
11.06.2010 17:02 27,6 C 27,0 C 13,1 UV-I 3,0 C 46 % 43 % 86 % 1012,8 hPa 0,0 l/m 10,0 km/h (2 Bft) 2 min 20,9 km/h (4 Bft)
11.06.2010 17:04 27,6 C 27,1 C 13,1 UV-I 3,0 C 45 % 42 % 86 % 1012,8 hPa 0,0 l/m 11,2 km/h (2 Bft) 2 min 10,0 km/h (2 Bft)
11.06.2010 17:06 27,6 C 27,1 C 12,9 UV-I 3,1 C 45 % 43 % 89 % 1012,8 hPa 0,0 l/m 11,2 km/h (2 Bft) 2 min 5,1 km/h (1 Bft)
11.06.2010 17:08 27,7 C 27,1 C 12,9 UV-I 3,1 C 45 % 43 % 89 % 1012,8 hPa 0,0 l/m 13,3 km/h (3 Bft) 2 min 19,3 km/h (3 Bft)
11.06.2010 17:12 27,8 C 27,1 C 13,0 UV-I 3,2 C 45 % 42 % 91 % 1012,5 hPa 0,0 l/m 13,3 km/h (3 Bft) 2 min 19,3 km/h (3 Bft)
11.06.2010 17:14 27,8 C 27,0 C 13,0 UV-I 3,3 C 45 % 43 % 94 % 1012,5 hPa 0,0 l/m 12,4 km/h (3 Bft) 2 min 7,1 km/h (2 Bft)
11.06.2010 17:16 27,8 C 27,1 C 13,1 UV-I 3,2 C 45 % 42 % 91 % 1012,5 hPa 0,0 l/m 12,4 km/h (3 Bft) 2 min 12,2 km/h (2 Bft)
11.06.2010 17:18 27,8 C 27,1 C 13,1 UV-I 3,3 C 45 % 42 % 94 % 1012,5 hPa 0,0 l/m 12,4 km/h (3 Bft) 2 min 14,5 km/h (3 Bft)
11.06.2010 17:20 27,8 C 26,9 C 13,1 UV-I 3,4 C 45 % 42 % 97 % 1012,5 hPa 0,0 l/m 12,4 km/h (3 Bft) 2 min 9,7 km/h (2 Bft)
11.06.2010 17:22 27,8 C 27,0 C 12,3 UV-I 3,2 C 45 % 42 % 91 % 1012,5 hPa 0,0 l/m 12,0 km/h (2 Bft) 2 min 21,6 km/h (4 Bft)
11.06.2010 17:24 27,8 C 27,0 C 12,3 UV-I 3,2 C 45 % 43 % 91 % 1012,5 hPa 0,0 l/m 11,6 km/h (2 Bft) 2 min 18,3 km/h (3 Bft)
11.06.2010 17:26 27,8 C 27,0 C 11,0 UV-I 3,2 C 45 % 43 % 91 % 1012,5 hPa 0,0 l/m 11,6 km/h (2 Bft) 2 min 12,2 km/h (2 Bft)
11.06.2010 17:30 27,9 C 27,1 C 11,0 UV-I 3,2 C 45 % 42 % 91 % 1012,5 hPa 0,0 l/m 10,8 km/h (2 Bft) 2 min 6,8 km/h (2 Bft)
11.06.2010 17:32 27,9 C 26,9 C 10,1 UV-I 3,4 C 45 % 42 % 97 % 1012,1 hPa 0,0 l/m 11,6 km/h (2 Bft) 2 min 15,8 km/h (3 Bft)
11.06.2010 17:34 27,9 C 26,8 C 10,1 UV-I 3,3 C 45 % 43 % 94 % 1012,1 hPa 0,0 l/m 11,2 km/h (2 Bft) 2 min 10,0 km/h (2 Bft)
11.06.2010 17:36 27,9 C 26,7 C 9,7 UV-I 3,3 C 45 % 45 % 94 % 1012,1 hPa 0,0 l/m 11,2 km/h (2 Bft) 2 min 13,5 km/h (3 Bft)
11.06.2010 17:38 27,9 C 26,7 C 9,7 UV-I 3,3 C 45 % 43 % 94 % 1012,1 hPa 0,0 l/m 11,2 km/h (2 Bft) 2 min 17,4 km/h (3 Bft)
11.06.2010 17:40 27,9 C 26,7 C 9,7 UV-I 3,3 C 44 % 44 % 94 % 1012,1 hPa 0,0 l/m 11,6 km/h (2 Bft) 2 min 12,9 km/h (3 Bft)
11.06.2010 17:42 28,0 C 26,7 C 10,3 UV-I 3,3 C 45 % 43 % 94 % 1012,1 hPa 0,0 l/m 11,2 km/h (2 Bft) 2 min 13,2 km/h (3 Bft)
11.06.2010 17:44 28,0 C 26,8 C 10,3 UV-I 3,3 C 45 % 44 % 94 % 1012,1 hPa 0,0 l/m 10,4 km/h (2 Bft) 2 min 9,0 km/h (2 Bft)
11.06.2010 17:46 28,0 C 26,6 C 11,2 UV-I 3,5 C 45 % 43 % 100 % 1012,1 hPa 0,0 l/m 11,6 km/h (2 Bft) 2 min 15,8 km/h (3 Bft)
11.06.2010 17:48 28,0 C 26,5 C 11,2 UV-I 3,4 C 45 % 43 % 97 % 1012,1 hPa 0,0 l/m 12,4 km/h (3 Bft) 2 min 9,7 km/h (2 Bft)
11.06.2010 17:50 28,0 C 26,3 C 11,2 UV-I 3,6 C 45 % 44 % 100 % 1012,1 hPa 0,0 l/m 12,4 km/h (3 Bft) 2 min 9,7 km/h (2 Bft)
11.06.2010 17:52 28,0 C 26,3 C 8,4 UV-I 3,3 C 45 % 44 % 94 % 1012,1 hPa 0,0 l/m 12,8 km/h (3 Bft) 2 min 24,5 km/h (4 Bft)
11.06.2010 17:54 27,9 C 26,1 C 8,4 UV-I 3,2 C 45 % 46 % 91 % 1012,1 hPa 0,0 l/m 13,3 km/h (3 Bft) 2 min 8,0 km/h (2 Bft)
11.06.2010 17:56 27,9 C 26,1 C 7,0 UV-I 3,1 C 45 % 46 % 89 % 1012,1 hPa 0,0 l/m 12,4 km/h (3 Bft) 2 min 5,8 km/h (2 Bft)
11.06.2010 17:58 27,9 C 26,1 C 7,0 UV-I 3,2 C 45 % 46 % 91 % 1012,1 hPa 0,0 l/m 11,6 km/h (2 Bft) 2 min 11,9 km/h (2 Bft)
11.06.2010 18:00 27,9 C 26,1 C 7,0 UV-I 3,2 C 45 % 47 % 91 % 1012,1 hPa 0,0 l/m 11,6 km/h (2 Bft) 2 min 9,7 km/h (2 Bft)
11.06.2010 18:02 27,9 C 26,0 C 6,0 UV-I 3,3 C 45 % 47 % 94 % 1012,1 hPa 0,0 l/m 10,4 km/h (2 Bft) 2 min 14,2 km/h (3 Bft)
11.06.2010 18:04 27,9 C 26,0 C 6,0 UV-I 3,4 C 45 % 47 % 97 % 1012,1 hPa 0,0 l/m 8,4 km/h (2 Bft) 2 min 13,5 km/h (3 Bft)
11.06.2010 18:06 27,9 C 25,9 C 4,9 UV-I 3,6 C 45 % 47 % 100 % 1012,1 hPa 0,0 l/m 8,8 km/h (2 Bft) 2 min 14,5 km/h (3 Bft)
11.06.2010 18:08 27,8 C 25,9 C 4,9 UV-I 3,6 C 45 % 47 % 100 % 1012,1 hPa 0,0 l/m 8,4 km/h (2 Bft) 2 min 10,6 km/h (2 Bft)
11.06.2010 18:10 27,8 C 25,9 C 4,9 UV-I 3,6 C 45 % 48 % 100 % 1012,1 hPa 0,0 l/m 8,4 km/h (2 Bft) 2 min 10,6 km/h (2 Bft)
11.06.2010 18:12 27,8 C 25,8 C 4,1 UV-I 3,6 C 45 % 48 % 100 % 1012,6 hPa 0,0 l/m 7,6 km/h (2 Bft) 2 min 7,4 km/h (2 Bft)
11.06.2010 18:14 27,7 C 25,7 C 4,1 UV-I 3,6 C 45 % 45 % 100 % 1012,6 hPa 0,0 l/m 9,2 km/h (2 Bft) 2 min 11,3 km/h (2 Bft)
11.06.2010 18:16 27,6 C 25,6 C 5,1 UV-I 3,4 C 45 % 46 % 97 % 1012,6 hPa 0,0 l/m 9,6 km/h (2 Bft) 2 min 11,6 km/h (2 Bft)
11.06.2010 18:18 27,6 C 25,5 C 5,1 UV-I 3,2 C 45 % 45 % 91 % 1012,6 hPa 0,0 l/m 10,4 km/h (2 Bft) 2 min 16,1 km/h (3 Bft)
11.06.2010 18:20 27,6 C 25,3 C 5,1 UV-I 3,0 C 45 % 46 % 86 % 1012,6 hPa 0,0 l/m 10,8 km/h (2 Bft) 2 min 7,4 km/h (2 Bft)
11.06.2010 18:22 27,5 C 25,2 C 4,3 UV-I 2,7 C 45 % 46 % 77 % 1012,6 hPa 0,0 l/m 11,6 km/h (2 Bft) 0 min 10,0 km/h (2 Bft)
11.06.2010 18:24 27,5 C 25,2 C 4,3 UV-I 2,3 C 45 % 46 % 66 % 1012,6 hPa 0,0 l/m 12,8 km/h (3 Bft) 0 min 21,9 km/h (4 Bft)
11.06.2010 18:26 27,4 C 25,0 C 4,3 UV-I 2,0 C 45 % 47 % 57 % 1012,6 hPa 0,0 l/m 13,7 km/h (3 Bft) 0 min 13,8 km/h (3 Bft)
11.06.2010 18:28 27,4 C 25,1 C 4,3 UV-I 1,6 C 45 % 49 % 46 % 1012,6 hPa 0,0 l/m 13,3 km/h (3 Bft) 0 min 16,1 km/h (3 Bft)
11.06.2010 18:30 27,2 C 24,9 C 4,3 UV-I 1,8 C 45 % 50 % 51 % 1012,6 hPa 0,0 l/m 13,3 km/h (3 Bft) 0 min 16,1 km/h (3 Bft)
11.06.2010 18:32 27,2 C 24,9 C 3,8 UV-I 1,2 C 45 % 50 % 34 % 1012,2 hPa 0,0 l/m 13,7 km/h (3 Bft) 0 min 21,9 km/h (4 Bft)
11.06.2010 18:34 27,2 C 24,8 C 3,8 UV-I 1,2 C 46 % 51 % 34 % 1012,2 hPa 0,0 l/m 13,7 km/h (3 Bft) 0 min 11,6 km/h (2 Bft)
11.06.2010 18:36 27,2 C 24,7 C 3,8 UV-I 0,9 C 46 % 51 % 26 % 1012,2 hPa 0,0 l/m 12,4 km/h (3 Bft) 0 min 9,0 km/h (2 Bft)
11.06.2010 18:38 27,2 C 24,6 C 3,8 UV-I 0,7 C 46 % 52 % 20 % 1012,2 hPa 0,0 l/m 12,0 km/h (2 Bft) 0 min 13,8 km/h (3 Bft)
11.06.2010 18:40 27,1 C 24,6 C 3,8 UV-I 0,5 C 46 % 52 % 14 % 1012,2 hPa 0,0 l/m 10,4 km/h (2 Bft) 0 min 5,8 km/h (2 Bft)
11.06.2010 18:42 27,1 C 24,6 C 3,7 UV-I 0,3 C 46 % 52 % 9 % 1012,2 hPa 0,0 l/m 10,4 km/h (2 Bft) 0 min 17,4 km/h (3 Bft)
11.06.2010 18:44 27,0 C 24,4 C 3,7 UV-I 0,5 C 46 % 53 % 14 % 1012,2 hPa 0,0 l/m 9,2 km/h (2 Bft) 0 min 12,9 km/h (3 Bft)
11.06.2010 18:46 27,0 C 24,4 C 3,5 UV-I 0,5 C 47 % 53 % 14 % 1012,2 hPa 0,0 l/m 8,8 km/h (2 Bft) 0 min 5,8 km/h (2 Bft)
11.06.2010 18:48 26,9 C 24,5 C 3,5 UV-I 0,4 C 47 % 53 % 11 % 1012,2 hPa 0,0 l/m 8,4 km/h (2 Bft) 0 min 7,7 km/h (2 Bft)
11.06.2010 18:52 26,8 C 24,4 C 3,6 UV-I 0,3 C 47 % 54 % 9 % 1011,4 hPa 0,0 l/m 8,0 km/h (2 Bft) 0 min 7,7 km/h (2 Bft)
11.06.2010 18:54 26,8 C 24,3 C 3,6 UV-I 0,2 C 47 % 56 % 6 % 1011,4 hPa 0,0 l/m 7,6 km/h (2 Bft) 0 min 9,7 km/h (2 Bft)
11.06.2010 18:56 26,8 C 24,2 C 3,4 UV-I 0,2 C 47 % 57 % 6 % 1011,4 hPa 0,0 l/m 8,0 km/h (2 Bft) 0 min 10,9 km/h (2 Bft)
11.06.2010 18:58 26,7 C 24,0 C 3,4 UV-I 0,2 C 47 % 57 % 6 % 1011,4 hPa 0,0 l/m 7,6 km/h (2 Bft) 0 min 11,6 km/h (2 Bft)
11.06.2010 19:00 26,7 C 23,9 C 3,4 UV-I 0,0 C 48 % 57 % 0 % 1011,4 hPa 0,0 l/m 8,0 km/h (2 Bft) 0 min 6,8 km/h (2 Bft)
11.06.2010 19:02 26,6 C 23,7 C 3,4 UV-I 0,0 C 48 % 58 % 0 % 1011,4 hPa 0,0 l/m 8,8 km/h (2 Bft) 0 min 12,9 km/h (3 Bft)
11.06.2010 19:04 26,6 C 23,6 C 3,4 UV-I 0,0 C 48 % 59 % 0 % 1011,4 hPa 0,0 l/m 8,8 km/h (2 Bft) 0 min 9,0 km/h (2 Bft)
11.06.2010 19:08 26,5 C 23,5 C 3,3 UV-I 0,0 C 48 % 60 % 0 % 1011,4 hPa 0,0 l/m 10,0 km/h (2 Bft) 0 min 19,0 km/h (3 Bft)
11.06.2010 19:10 26,5 C 23,3 C 3,3 UV-I 0,0 C 48 % 60 % 0 % 1011,4 hPa 0,0 l/m 10,0 km/h (2 Bft) 0 min 19,0 km/h (3 Bft)
11.06.2010 19:12 26,4 C 23,1 C 3,2 UV-I 0,0 C 49 % 60 % 0 % 1011,5 hPa 0,0 l/m 9,6 km/h (2 Bft) 0 min 5,1 km/h (1 Bft)
11.06.2010 19:16 26,4 C 22,8 C 3,1 UV-I 0,0 C 49 % 61 % 0 % 1011,5 hPa 0,0 l/m 10,8 km/h (2 Bft) 0 min 18,3 km/h (3 Bft)
11.06.2010 19:20 26,3 C 22,5 C 3,1 UV-I 0,0 C 49 % 62 % 0 % 1011,5 hPa 0,0 l/m 12,0 km/h (2 Bft) 0 min 25,1 km/h (4 Bft)
11.06.2010 19:22 26,2 C 22,5 C 3,0 UV-I 0,0 C 49 % 62 % 0 % 1011,5 hPa 0,0 l/m 11,2 km/h (2 Bft) 0 min 7,4 km/h (2 Bft)
11.06.2010 19:24 26,2 C 22,3 C 3,0 UV-I 0,0 C 49 % 62 % 0 % 1011,5 hPa 0,0 l/m 11,2 km/h (2 Bft) 0 min 6,8 km/h (2 Bft)
11.06.2010 19:28 26,1 C 22,1 C 2,9 UV-I 0,0 C 50 % 63 % 0 % 1011,5 hPa 0,0 l/m 11,2 km/h (2 Bft) 0 min 25,4 km/h (4 Bft)
11.06.2010 19:30 26,1 C 22,0 C 2,9 UV-I 0,0 C 50 % 63 % 0 % 1011,5 hPa 0,0 l/m 11,2 km/h (2 Bft) 0 min 25,4 km/h (4 Bft)
11.06.2010 19:34 26,0 C 21,7 C 2,8 UV-I 0,0 C 50 % 64 % 0 % 1011,7 hPa 0,0 l/m 11,6 km/h (2 Bft) 0 min 12,9 km/h (3 Bft)
11.06.2010 19:38 26,0 C 21,6 C 2,7 UV-I 0,0 C 50 % 64 % 0 % 1011,7 hPa 0,0 l/m 11,6 km/h (2 Bft) 0 min 9,0 km/h (2 Bft)
11.06.2010 19:43 25,9 C 21,3 C 2,6 UV-I 0,0 C 50 % 65 % 0 % 1011,7 hPa 0,0 l/m 8,8 km/h (2 Bft) 0 min 0,0 km/h (0 Bft)
11.06.2010 19:48 25,8 C 21,1 C 2,5 UV-I 0,0 C 51 % 65 % 0 % 1011,7 hPa 0,0 l/m 8,4 km/h (2 Bft) 0 min 4,2 km/h (1 Bft)
11.06.2010 19:53 25,7 C 20,8 C 2,4 UV-I 0,0 C 51 % 66 % 0 % 1011,7 hPa 0,0 l/m 5,6 km/h (1 Bft) 0 min 6,1 km/h (2 Bft)
11.06.2010 19:55 25,7 C 20,8 C 2,3 UV-I 0,0 C 51 % 66 % 0 % 1011,7 hPa 0,0 l/m 6,4 km/h (2 Bft) 0 min 7,4 km/h (2 Bft)
11.06.2010 19:56 25,7 C 20,8 C 2,3 UV-I 0,0 C 51 % 66 % 0 % 1011,7 hPa 0,0 l/m 6,4 km/h (2 Bft) 0 min 7,4 km/h (2 Bft)
11.06.2010 19:58 25,6 C 20,7 C 2,3 UV-I 0,0 C 51 % 66 % 0 % 1011,7 hPa 0,0 l/m 6,8 km/h (2 Bft) 0 min 9,7 km/h (2 Bft)
11.06.2010 20:00 25,6 C 20,7 C 2,3 UV-I 0,0 C 51 % 66 % 0 % 1011,7 hPa 0,0 l/m 7,6 km/h (2 Bft) 0 min 13,5 km/h (3 Bft)
11.06.2010 20:02 25,6 C 20,5 C 2,2 UV-I 0,0 C 51 % 66 % 0 % 1011,7 hPa 0,0 l/m 8,0 km/h (2 Bft) 0 min 6,1 km/h (2 Bft)
11.06.2010 20:04 25,6 C 20,4 C 2,2 UV-I 0,0 C 51 % 66 % 0 % 1011,7 hPa 0,0 l/m 7,6 km/h (2 Bft) 0 min 3,2 km/h (1 Bft)
11.06.2010 20:06 25,6 C 20,3 C 2,0 UV-I 0,0 C 51 % 67 % 0 % 1011,7 hPa 0,0 l/m 7,6 km/h (2 Bft) 0 min 7,4 km/h (2 Bft)
11.06.2010 20:08 25,5 C 20,3 C 2,0 UV-I 0,0 C 51 % 67 % 0 % 1011,7 hPa 0,0 l/m 6,8 km/h (2 Bft) 0 min 3,9 km/h (1 Bft)
11.06.2010 20:10 25,5 C 20,2 C 2,0 UV-I 0,0 C 52 % 67 % 0 % 1011,7 hPa 0,0 l/m 6,8 km/h (2 Bft) 0 min 3,9 km/h (1 Bft)
11.06.2010 20:12 25,5 C 20,3 C 1,9 UV-I 0,0 C 52 % 68 % 0 % 1012,3 hPa 0,0 l/m 7,2 km/h (2 Bft) 0 min 20,3 km/h (4 Bft)
11.06.2010 20:14 25,5 C 20,2 C 1,9 UV-I 0,0 C 52 % 68 % 0 % 1012,3 hPa 0,0 l/m 7,2 km/h (2 Bft) 0 min 18,3 km/h (3 Bft)
11.06.2010 20:16 25,4 C 20,0 C 1,8 UV-I 0,0 C 52 % 68 % 0 % 1012,3 hPa 0,0 l/m 6,8 km/h (2 Bft) 0 min 0,0 km/h (0 Bft)
11.06.2010 20:18 25,4 C 20,1 C 1,8 UV-I 0,0 C 52 % 68 % 0 % 1012,3 hPa 0,0 l/m 6,0 km/h (2 Bft) 0 min 0,0 km/h (0 Bft)
11.06.2010 20:20 25,4 C 20,0 C 1,8 UV-I 0,0 C 52 % 69 % 0 % 1012,3 hPa 0,0 l/m 5,6 km/h (1 Bft) 0 min 8,0 km/h (2 Bft)
11.06.2010 20:22 25,4 C 19,9 C 1,7 UV-I 0,0 C 52 % 69 % 0 % 1012,3 hPa 0,0 l/m 5,6 km/h (1 Bft) 0 min 7,1 km/h (2 Bft)
11.06.2010 20:24 25,4 C 19,8 C 1,7 UV-I 0,0 C 52 % 69 % 0 % 1012,3 hPa 0,0 l/m 5,6 km/h (1 Bft) 0 min 8,4 km/h (2 Bft)
11.06.2010 20:26 25,4 C 19,8 C 1,6 UV-I 0,0 C 52 % 69 % 0 % 1012,3 hPa 0,0 l/m 5,2 km/h (1 Bft) 0 min 3,5 km/h (1 Bft)
11.06.2010 20:28 25,4 C 19,7 C 1,6 UV-I 0,0 C 52 % 70 % 0 % 1012,3 hPa 0,0 l/m 6,4 km/h (2 Bft) 0 min 12,6 km/h (3 Bft)
11.06.2010 20:30 25,2 C 19,6 C 1,6 UV-I 0,0 C 52 % 70 % 0 % 1012,3 hPa 0,0 l/m 6,4 km/h (2 Bft) 0 min 12,6 km/h (3 Bft)
11.06.2010 20:32 25,2 C 19,5 C 1,4 UV-I 0,0 C 52 % 70 % 0 % 1012,5 hPa 0,0 l/m 6,4 km/h (2 Bft) 0 min 7,4 km/h (2 Bft)
11.06.2010 20:34 25,3 C 19,5 C 1,4 UV-I 0,0 C 52 % 70 % 0 % 1012,5 hPa 0,0 l/m 6,0 km/h (2 Bft) 0 min 10,3 km/h (2 Bft)
11.06.2010 20:36 25,2 C 19,3 C 1,3 UV-I 0,0 C 52 % 70 % 0 % 1012,5 hPa 0,0 l/m 5,6 km/h (1 Bft) 0 min 10,6 km/h (2 Bft)
11.06.2010 20:38 25,2 C 19,3 C 1,3 UV-I 0,0 C 52 % 71 % 0 % 1012,5 hPa 0,0 l/m 6,0 km/h (2 Bft) 0 min 5,5 km/h (1 Bft)
11.06.2010 20:40 25,2 C 19,3 C 1,3 UV-I 0,0 C 52 % 71 % 0 % 1012,5 hPa 0,0 l/m 7,2 km/h (2 Bft) 0 min 16,4 km/h (3 Bft)
11.06.2010 20:42 25,2 C 19,1 C 1,2 UV-I 0,0 C 52 % 71 % 0 % 1012,5 hPa 0,0 l/m 8,0 km/h (2 Bft) 0 min 10,0 km/h (2 Bft)
11.06.2010 20:44 25,2 C 19,0 C 1,2 UV-I 0,0 C 52 % 71 % 0 % 1012,5 hPa 0,0 l/m 9,6 km/h (2 Bft) 0 min 15,4 km/h (3 Bft)
11.06.2010 20:46 25,2 C 18,9 C 1,0 UV-I 0,0 C 52 % 72 % 0 % 1012,5 hPa 0,0 l/m 10,4 km/h (2 Bft) 0 min 9,0 km/h (2 Bft)
11.06.2010 20:48 25,1 C 18,8 C 1,0 UV-I 0,0 C 52 % 72 % 0 % 1012,5 hPa 0,0 l/m 11,2 km/h (2 Bft) 0 min 23,8 km/h (4 Bft)
11.06.2010 20:50 25,1 C 18,8 C 1,0 UV-I 0,0 C 52 % 72 % 0 % 1012,5 hPa 0,0 l/m 11,2 km/h (2 Bft) 0 min 23,8 km/h (4 Bft)
11.06.2010 20:52 25,1 C 18,7 C 1,0 UV-I 0,0 C 53 % 72 % 0 % 1012,4 hPa 0,0 l/m 9,2 km/h (2 Bft) 0 min 0,0 km/h (0 Bft)
11.06.2010 20:54 25,0 C 18,7 C 1,0 UV-I 0,0 C 53 % 72 % 0 % 1012,4 hPa 0,0 l/m 9,6 km/h (2 Bft) 0 min 16,4 km/h (3 Bft)
11.06.2010 20:56 25,0 C 18,6 C 1,0 UV-I 0,0 C 53 % 72 % 0 % 1012,4 hPa 0,0 l/m 10,0 km/h (2 Bft) 0 min 34,1 km/h (5 Bft)
11.06.2010 20:58 25,0 C 18,5 C 1,0 UV-I 0,0 C 53 % 72 % 0 % 1012,4 hPa 0,0 l/m 11,2 km/h (2 Bft) 0 min 7,4 km/h (2 Bft)
11.06.2010 21:00 25,0 C 18,4 C 1,0 UV-I 0,0 C 53 % 73 % 0 % 1012,4 hPa 0,0 l/m 10,8 km/h (2 Bft) 0 min 9,7 km/h (2 Bft)
11.06.2010 21:02 24,9 C 18,3 C 0,8 UV-I 0,0 C 53 % 73 % 0 % 1012,4 hPa 0,0 l/m 10,8 km/h (2 Bft) 0 min 8,7 km/h (2 Bft)
11.06.2010 21:04 24,9 C 18,3 C 0,8 UV-I 0,0 C 53 % 73 % 0 % 1012,4 hPa 0,0 l/m 11,6 km/h (2 Bft) 0 min 4,5 km/h (1 Bft)
11.06.2010 21:06 24,8 C 18,2 C 0,7 UV-I 0,0 C 53 % 73 % 0 % 1012,4 hPa 0,0 l/m 9,6 km/h (2 Bft) 0 min 3,5 km/h (1 Bft)
11.06.2010 21:08 24,8 C 18,3 C 0,7 UV-I 0,0 C 53 % 74 % 0 % 1012,4 hPa 0,0 l/m 7,2 km/h (2 Bft) 0 min 0,0 km/h (0 Bft)
11.06.2010 21:10 24,8 C 18,1 C 0,7 UV-I 0,0 C 53 % 74 % 0 % 1012,4 hPa 0,0 l/m 7,2 km/h (2 Bft) 0 min 0,0 km/h (0 Bft)
11.06.2010 21:12 24,8 C 18,0 C 0,6 UV-I 0,0 C 53 % 74 % 0 % 1012,2 hPa 0,0 l/m 6,8 km/h (2 Bft) 0 min 10,9 km/h (2 Bft)
11.06.2010 21:14 24,7 C 18,0 C 0,6 UV-I 0,0 C 53 % 74 % 0 % 1012,2 hPa 0,0 l/m 6,8 km/h (2 Bft) 0 min 9,0 km/h (2 Bft)
11.06.2010 21:16 24,7 C 18,0 C 0,6 UV-I 0,0 C 53 % 74 % 0 % 1012,2 hPa 0,0 l/m 6,8 km/h (2 Bft) 0 min 3,2 km/h (1 Bft)
11.06.2010 21:18 24,7 C 17,9 C 0,6 UV-I 0,0 C 53 % 74 % 0 % 1012,2 hPa 0,0 l/m 6,4 km/h (2 Bft) 0 min 0,0 km/h (0 Bft)
11.06.2010 21:20 24,6 C 17,9 C 0,6 UV-I 0,0 C 53 % 74 % 0 % 1012,2 hPa 0,0 l/m 6,4 km/h (2 Bft) 0 min 5,8 km/h (2 Bft)
11.06.2010 21:22 24,6 C 17,9 C 0,4 UV-I 0,0 C 53 % 75 % 0 % 1012,2 hPa 0,0 l/m 6,0 km/h (2 Bft) 0 min 7,1 km/h (2 Bft)
11.06.2010 21:24 24,6 C 17,9 C 0,4 UV-I 0,0 C 54 % 75 % 0 % 1012,2 hPa 0,0 l/m 6,0 km/h (2 Bft) 0 min 9,7 km/h (2 Bft)
11.06.2010 21:26 24,6 C 17,8 C 0,4 UV-I 0,0 C 54 % 75 % 0 % 1012,2 hPa 0,0 l/m 5,2 km/h (1 Bft) 0 min 0,0 km/h (0 Bft)
11.06.2010 21:28 24,6 C 17,7 C 0,4 UV-I 0,0 C 54 % 75 % 0 % 1012,2 hPa 0,0 l/m 6,0 km/h (2 Bft) 0 min 10,9 km/h (2 Bft)
11.06.2010 21:30 24,5 C 17,6 C 0,4 UV-I 0,0 C 54 % 76 % 0 % 1012,2 hPa 0,0 l/m 6,0 km/h (2 Bft) 0 min 10,9 km/h (2 Bft)
11.06.2010 21:32 24,5 C 17,6 C 0,3 UV-I 0,0 C 54 % 76 % 0 % 1012,2 hPa 0,0 l/m 6,8 km/h (2 Bft) 0 min 6,1 km/h (2 Bft)
11.06.2010 21:34 24,5 C 17,6 C 0,3 UV-I 0,0 C 54 % 76 % 0 % 1012,2 hPa 0,0 l/m 6,8 km/h (2 Bft) 0 min 7,1 km/h (2 Bft)
11.06.2010 21:36 24,4 C 17,5 C 0,2 UV-I 0,0 C 54 % 76 % 0 % 1012,2 hPa 0,0 l/m 6,0 km/h (2 Bft) 0 min 0,0 km/h (0 Bft)
11.06.2010 21:38 24,4 C 17,5 C 0,2 UV-I 0,0 C 54 % 76 % 0 % 1012,2 hPa 0,0 l/m 5,6 km/h (1 Bft) 0 min 4,8 km/h (1 Bft)
11.06.2010 21:40 24,4 C 17,5 C 0,2 UV-I 0,0 C 54 % 76 % 0 % 1012,2 hPa 0,0 l/m 5,2 km/h (1 Bft) 0 min 0,0 km/h (0 Bft)
11.06.2010 21:42 24,4 C 17,5 C 0,2 UV-I 0,0 C 54 % 76 % 0 % 1012,2 hPa 0,0 l/m 4,0 km/h (1 Bft) 0 min 0,0 km/h (0 Bft)
11.06.2010 21:44 24,4 C 17,3 C 0,2 UV-I 0,0 C 54 % 77 % 0 % 1012,2 hPa 0,0 l/m 4,0 km/h (1 Bft) 0 min 11,3 km/h (2 Bft)
11.06.2010 21:46 24,4 C 17,3 C 0,2 UV-I 0,0 C 54 % 77 % 0 % 1012,2 hPa 0,0 l/m 3,2 km/h (1 Bft) 0 min 7,7 km/h (2 Bft)
11.06.2010 21:48 24,2 C 17,2 C 0,2 UV-I 0,0 C 54 % 77 % 0 % 1012,2 hPa 0,0 l/m 3,6 km/h (1 Bft) 0 min 0,0 km/h (0 Bft)
11.06.2010 21:52 24,3 C 17,3 C 0,1 UV-I 0,0 C 54 % 77 % 0 % 1012,5 hPa 0,0 l/m 4,4 km/h (1 Bft) 0 min 8,0 km/h (2 Bft)
11.06.2010 21:54 24,3 C 17,2 C 0,1 UV-I 0,0 C 54 % 77 % 0 % 1012,5 hPa 0,0 l/m 6,0 km/h (2 Bft) 0 min 3,2 km/h (1 Bft)
11.06.2010 21:56 24,2 C 17,1 C 0,1 UV-I 0,0 C 54 % 77 % 0 % 1012,5 hPa 0,0 l/m 4,8 km/h (1 Bft) 0 min 3,2 km/h (1 Bft)
11.06.2010 21:58 24,2 C 17,1 C 0,1 UV-I 0,0 C 54 % 77 % 0 % 1012,5 hPa 0,0 l/m 4,8 km/h (1 Bft) 0 min 4,2 km/h (1 Bft)
11.06.2010 22:00 24,2 C 17,1 C 0,1 UV-I 0,0 C 55 % 77 % 0 % 1012,5 hPa 0,0 l/m 4,8 km/h (1 Bft) 0 min 0,0 km/h (0 Bft)
11.06.2010 22:04 24,2 C 17,1 C 0,1 UV-I 0,0 C 55 % 78 % 0 % 1012,5 hPa 0,0 l/m 2,0 km/h (1 Bft) 0 min 0,0 km/h (0 Bft)
11.06.2010 22:06 24,1 C 17,0 C 0,1 UV-I 0,0 C 55 % 78 % 0 % 1012,5 hPa 0,0 l/m 1,6 km/h (1 Bft) 0 min 0,0 km/h (0 Bft)
11.06.2010 22:08 24,1 C 16,9 C 0,1 UV-I 0,0 C 55 % 77 % 0 % 1012,5 hPa 0,0 l/m 1,2 km/h (1 Bft) 0 min 0,0 km/h (0 Bft)
11.06.2010 22:10 24,1 C 16,9 C 0,1 UV-I 0,0 C 55 % 77 % 0 % 1012,5 hPa 0,0 l/m 1,2 km/h (1 Bft) 0 min 0,0 km/h (0 Bft)
11.06.2010 22:12 24,1 C 16,8 C 0,1 UV-I 0,0 C 55 % 78 % 0 % 1012,8 hPa 0,0 l/m 0,0 km/h (0 Bft) 0 min 0,0 km/h (0 Bft)
11.06.2010 22:18 24,0 C 16,7 C 0,1 UV-I 0,0 C 55 % 78 % 0 % 1012,8 hPa 0,0 l/m 0,4 km/h (0 Bft) 0 min 0,0 km/h (0 Bft)
11.06.2010 22:20 24,0 C 16,7 C 0,1 UV-I 0,0 C 55 % 78 % 0 % 1012,8 hPa 0,0 l/m 0,4 km/h (0 Bft) 0 min 0,0 km/h (0 Bft)
11.06.2010 22:22 24,0 C 16,6 C 0,1 UV-I 0,0 C 55 % 78 % 0 % 1012,8 hPa 0,0 l/m 0,8 km/h (0 Bft) 0 min 0,0 km/h (0 Bft)
11.06.2010 22:24 24,0 C 16,7 C 0,1 UV-I 0,0 C 55 % 78 % 0 % 1012,8 hPa 0,0 l/m 0,8 km/h (0 Bft) 0 min 0,0 km/h (0 Bft)
11.06.2010 22:26 24,0 C 16,5 C 0,1 UV-I 0,0 C 55 % 78 % 0 % 1012,8 hPa 0,0 l/m 0,4 km/h (0 Bft) 0 min 0,0 km/h (0 Bft)
11.06.2010 22:28 24,0 C 16,5 C 0,1 UV-I 0,0 C 55 % 78 % 0 % 1012,8 hPa 0,0 l/m 0,4 km/h (0 Bft) 0 min 0,0 km/h (0 Bft)
11.06.2010 22:30 23,9 C 16,5 C 0,1 UV-I 0,0 C 55 % 78 % 0 % 1012,8 hPa 0,0 l/m 0,4 km/h (0 Bft) 0 min 0,0 km/h (0 Bft)
11.06.2010 22:32 23,9 C 16,5 C 0,1 UV-I 0,0 C 55 % 79 % 0 % 1012,9 hPa 0,0 l/m 0,4 km/h (0 Bft) 0 min 0,0 km/h (0 Bft)
11.06.2010 22:34 23,9 C 16,5 C 0,1 UV-I 0,0 C 55 % 79 % 0 % 1012,9 hPa 0,0 l/m 0,4 km/h (0 Bft) 0 min 0,0 km/h (0 Bft)
11.06.2010 22:36 23,9 C 16,4 C 0,1 UV-I 0,0 C 55 % 79 % 0 % 1012,9 hPa 0,0 l/m 0,4 km/h (0 Bft) 0 min 0,0 km/h (0 Bft)
11.06.2010 22:38 23,9 C 16,3 C 0,1 UV-I 0,0 C 55 % 79 % 0 % 1012,9 hPa 0,0 l/m 0,4 km/h (0 Bft) 0 min 0,0 km/h (0 Bft)
11.06.2010 22:42 23,9 C 16,3 C 0,1 UV-I 0,0 C 55 % 79 % 0 % 1012,9 hPa 0,0 l/m 0,0 km/h (0 Bft) 0 min 0,0 km/h (0 Bft)
11.06.2010 22:44 23,8 C 16,1 C 0,1 UV-I 0,0 C 55 % 79 % 0 % 1012,9 hPa 0,0 l/m 0,0 km/h (0 Bft) 0 min 0,0 km/h (0 Bft)
11.06.2010 22:46 23,8 C 16,1 C 0,1 UV-I 0,0 C 55 % 79 % 0 % 1012,9 hPa 0,0 l/m 0,0 km/h (0 Bft) 0 min 0,0 km/h (0 Bft)
11.06.2010 22:48 23,8 C 16,1 C 0,1 UV-I 0,0 C 55 % 79 % 0 % 1012,9 hPa 0,0 l/m 0,0 km/h (0 Bft) 0 min 0,0 km/h (0 Bft)
11.06.2010 22:50 23,8 C 16,0 C 0,1 UV-I 0,0 C 55 % 80 % 0 % 1012,9 hPa 0,0 l/m 0,0 km/h (0 Bft) 0 min 0,0 km/h (0 Bft)
11.06.2010 22:52 23,8 C 16,0 C 0,1 UV-I 0,0 C 55 % 80 % 0 % 1012,8 hPa 0,0 l/m 0,0 km/h (0 Bft) 0 min 0,0 km/h (0 Bft)
11.06.2010 22:54 23,7 C 16,1 C 0,1 UV-I 0,0 C 55 % 80 % 0 % 1012,8 hPa 0,0 l/m 0,0 km/h (0 Bft) 0 min 0,0 km/h (0 Bft)
11.06.2010 22:56 23,8 C 16,1 C 0,1 UV-I 0,0 C 55 % 80 % 0 % 1012,8 hPa 0,0 l/m 0,0 km/h (0 Bft) 0 min 0,0 km/h (0 Bft)
11.06.2010 22:58 23,7 C 16,0 C 0,1 UV-I 0,0 C 55 % 80 % 0 % 1012,8 hPa 0,0 l/m 0,0 km/h (0 Bft) 0 min 0,0 km/h (0 Bft)
11.06.2010 23:00 23,7 C 15,9 C 0,1 UV-I 0,0 C 55 % 81 % 0 % 1012,8 hPa 0,0 l/m 0,0 km/h (0 Bft) 0 min 0,0 km/h (0 Bft)
11.06.2010 23:02 23,7 C 15,9 C 0,1 UV-I 0,0 C 55 % 81 % 0 % 1012,8 hPa 0,0 l/m 0,0 km/h (0 Bft) 0 min 0,0 km/h (0 Bft)
11.06.2010 23:04 23,7 C 15,8 C 0,1 UV-I 0,0 C 55 % 81 % 0 % 1012,8 hPa 0,0 l/m 0,0 km/h (0 Bft) 0 min 0,0 km/h (0 Bft)
11.06.2010 23:06 23,6 C 15,9 C 0,1 UV-I 0,0 C 55 % 81 % 0 % 1012,8 hPa 0,0 l/m 0,0 km/h (0 Bft) 0 min 0,0 km/h (0 Bft)
11.06.2010 23:10 23,7 C 15,8 C 0,1 UV-I 0,0 C 55 % 81 % 0 % 1012,8 hPa 0,0 l/m 0,0 km/h (0 Bft) 0 min 0,0 km/h (0 Bft)
11.06.2010 23:12 23,6 C 15,8 C 0,1 UV-I 0,0 C 55 % 81 % 0 % 1012,9 hPa 0,0 l/m 0,0 km/h (0 Bft) 0 min 0,0 km/h (0 Bft)
11.06.2010 23:16 23,6 C 15,8 C 0,1 UV-I 0,0 C 55 % 82 % 0 % 1012,9 hPa 0,0 l/m 0,0 km/h (0 Bft) 0 min 0,0 km/h (0 Bft)
11.06.2010 23:18 23,6 C 15,7 C 0,1 UV-I 0,0 C 55 % 82 % 0 % 1012,9 hPa 0,0 l/m 0,0 km/h (0 Bft) 0 min 0,0 km/h (0 Bft)
11.06.2010 23:20 23,6 C 15,7 C 0,1 UV-I 0,0 C 55 % 82 % 0 % 1012,9 hPa 0,0 l/m 0,0 km/h (0 Bft) 0 min 0,0 km/h (0 Bft)
11.06.2010 23:22 23,6 C 15,7 C 0,0 UV-I 0,0 C 55 % 82 % 0 % 1012,9 hPa 0,0 l/m 0,0 km/h (0 Bft) 0 min 0,0 km/h (0 Bft)
11.06.2010 23:24 23,6 C 15,7 C 0,0 UV-I 0,0 C 55 % 82 % 0 % 1012,9 hPa 0,0 l/m 0,0 km/h (0 Bft) 0 min 0,0 km/h (0 Bft)
11.06.2010 23:26 23,6 C 15,8 C 0,1 UV-I 0,0 C 55 % 82 % 0 % 1012,9 hPa 0,0 l/m 0,0 km/h (0 Bft) 0 min 0,0 km/h (0 Bft)
11.06.2010 23:28 23,6 C 15,7 C 0,1 UV-I 0,0 C 55 % 82 % 0 % 1012,9 hPa 0,0 l/m 0,0 km/h (0 Bft) 0 min 0,0 km/h (0 Bft)
11.06.2010 23:30 23,6 C 15,8 C 0,1 UV-I 0,0 C 55 % 82 % 0 % 1012,9 hPa 0,0 l/m 0,0 km/h (0 Bft) 0 min 0,0 km/h (0 Bft)
11.06.2010 23:32 23,6 C 15,9 C 0,0 UV-I 0,0 C 55 % 82 % 0 % 1013,0 hPa 0,0 l/m 0,0 km/h (0 Bft) 0 min 0,0 km/h (0 Bft)
11.06.2010 23:34 23,5 C 15,9 C 0,0 UV-I 0,0 C 56 % 82 % 0 % 1013,0 hPa 0,0 l/m 0,0 km/h (0 Bft) 0 min 0,0 km/h (0 Bft)
11.06.2010 23:36 23,5 C 15,9 C 0,0 UV-I 0,0 C 56 % 83 % 0 % 1013,0 hPa 0,0 l/m 0,0 km/h (0 Bft) 0 min 0,0 km/h (0 Bft)
11.06.2010 23:38 23,5 C 15,8 C 0,0 UV-I 0,0 C 56 % 83 % 0 % 1013,0 hPa 0,0 l/m 0,0 km/h (0 Bft) 0 min 0,0 km/h (0 Bft)
11.06.2010 23:42 23,5 C 15,9 C 0,0 UV-I 0,0 C 56 % 83 % 0 % 1013,0 hPa 0,0 l/m 0,4 km/h (0 Bft) 0 min 0,0 km/h (0 Bft)
11.06.2010 23:44 23,5 C 15,9 C 0,0 UV-I 0,0 C 56 % 83 % 0 % 1013,0 hPa 0,0 l/m 0,4 km/h (0 Bft) 0 min 0,0 km/h (0 Bft)
11.06.2010 23:46 23,5 C 15,9 C 0,0 UV-I 0,0 C 56 % 83 % 0 % 1013,0 hPa 0,0 l/m 0,8 km/h (0 Bft) 0 min 0,0 km/h (0 Bft)
11.06.2010 23:48 23,4 C 15,9 C 0,0 UV-I 0,0 C 56 % 83 % 0 % 1013,0 hPa 0,0 l/m 1,2 km/h (1 Bft) 0 min 0,0 km/h (0 Bft)
11.06.2010 23:53 23,4 C 15,9 C 0,0 UV-I 0,0 C 56 % 83 % 0 % 1012,9 hPa 0,0 l/m 3,2 km/h (1 Bft) 0 min 5,5 km/h (1 Bft)
_ Min-Zeit 05:22 23:18 00:00 00:00 17:40 16:10 00:00 02:32 - 00:00 - 00:00
Minimum _ 22,0 C 15,7 C 0,0 UV-I 0,0 C 44 % 41 % 0 % 1005,6 hPa - 0,0 km/h (0 Bft) - 0,0 km/h (0 Bft)
_ Max-Zeit 17:42 16:00 10:06 10:24 00:38 04:56 08:14 23:32 00:52 16:14 08:14 16:10
Maximum _ 28,0 C 27,3 C 17,2 UV-I 6,1 C 71 % 93 % 100 % 1013,0 hPa 0,4 l/m 15,3 km/h
S-SO (3 Bft)
2 min 34,1 km/h
S-SO (5 Bft)
Durchschnitt _ 23,8 C 21,0 C 4,4 UV-I 1,5 C 61 % 72 % 39 % 1009,1 hPa #2,4 l/m 6,4 km/h (2 Bft) #7:35 h 7,6 km/h (2 Bft)
© 2012 W. Hausmann